| time (UTC) | temp F | wind direction | speed MPH | gust MPH | rain 1hr in | rain 24hr in | rain mn in | humidity % | barometer mb |
| 20260903180505 | 94 | 155 | 5.0 | 13.0 | 0.00 | 0.00 | 0.00 | 48 | 1014.9 |
| 20260903180404 | 94 | 155 | 5.0 | 13.0 | 0.00 | 0.00 | 0.00 | 49 | 1015.0 |
| 20260903180305 | 94 | 158 | 5.0 | 13.0 | 0.00 | 0.00 | 0.00 | 48 | 1014.9 |
| 20260903180205 | 94 | 164 | 5.0 | 13.0 | 0.00 | 0.00 | 0.00 | 49 | 1014.9 |
| 20260903180005 | 94 | 168 | 5.0 | 13.0 | 0.00 | 0.00 | 0.00 | 49 | 1015.0 |
| 20260903175905 | 94 | 164 | 5.0 | 11.0 | 0.00 | 0.00 | 0.00 | 49 | 1015.0 |
| 20260903175805 | 94 | 162 | 5.0 | 11.0 | 0.00 | 0.00 | 0.00 | 49 | 1015.0 |
| 20260903175604 | 94 | 169 | 5.0 | 12.0 | 0.00 | 0.00 | 0.00 | 49 | 1015.0 |
| 20260903175504 | 94 | 174 | 5.0 | 14.0 | 0.00 | 0.00 | 0.00 | 49 | 1015.1 |
| 20260903175404 | 94 | 178 | 5.0 | 14.0 | 0.00 | 0.00 | 0.00 | 49 | 1015.1 |
| 20260903175204 | 94 | 173 | 5.0 | 14.0 | 0.00 | 0.00 | 0.00 | 50 | 1015.2 |
| 20260903175104 | 94 | 169 | 5.0 | 14.0 | 0.00 | 0.00 | 0.00 | 49 | 1015.1 |
| 20260903174904 | 93 | 163 | 5.0 | 14.0 | 0.00 | 0.00 | 0.00 | 50 | 1015.1 |
| 20260903174804 | 93 | 161 | 5.0 | 14.0 | 0.00 | 0.00 | 0.00 | 51 | 1015.2 |
| 20260903174704 | 93 | 157 | 5.0 | 14.0 | 0.00 | 0.00 | 0.00 | 50 | 1015.1 |
| 20260903174504 | 93 | 147 | 5.0 | 11.0 | 0.00 | 0.00 | 0.00 | 50 | 1015.1 |
| 20260903174404 | 93 | 147 | 5.0 | 11.0 | 0.00 | 0.00 | 0.00 | 51 | 1015.2 |
| 20260903174304 | 93 | 144 | 5.0 | 11.0 | 0.00 | 0.00 | 0.00 | 50 | 1015.2 |
| 20260903174204 | 93 | 145 | 4.0 | 11.0 | 0.00 | 0.00 | 0.00 | 50 | 1015.2 |
| 20260903174104 | 93 | 143 | 4.0 | 11.0 | 0.00 | 0.00 | 0.00 | 50 | 1015.2 |
| 20260903174004 | 93 | 149 | 4.0 | 13.0 | 0.00 | 0.00 | 0.00 | 50 | 1015.2 |
| 20260903173904 | 93 | 155 | 4.0 | 13.0 | 0.00 | 0.00 | 0.00 | 51 | 1015.3 |
| 20260903173805 | 93 | 158 | 4.0 | 13.0 | 0.00 | 0.00 | 0.00 | 51 | 1015.3 |
| 20260903173705 | 93 | 161 | 4.0 | 13.0 | 0.00 | 0.00 | 0.00 | 51 | 1015.4 |
| 20260903173605 | 93 | 162 | 5.0 | 13.0 | 0.00 | 0.00 | 0.00 | 52 | 1015.4 |
| 20260903173505 | 92 | 165 | 5.0 | 13.0 | 0.00 | 0.00 | 0.00 | 52 | 1015.4 |
| 20260903173404 | 92 | 171 | 6.0 | 14.0 | 0.00 | 0.00 | 0.00 | 52 | 1015.3 |
| 20260903173305 | 92 | 177 | 6.0 | 14.0 | 0.00 | 0.00 | 0.00 | 52 | 1015.3 |
| 20260903173205 | 92 | 185 | 7.0 | 14.0 | 0.00 | 0.00 | 0.00 | 53 | 1015.4 |
| 20260903173105 | 92 | 190 | 7.0 | 14.0 | 0.00 | 0.00 | 0.00 | 52 | 1015.3 |
| 20260903173005 | 92 | 184 | 6.0 | 14.0 | 0.00 | 0.00 | 0.00 | 53 | 1015.4 |
| 20260903172805 | 91 | 178 | 7.0 | 14.0 | 0.00 | 0.00 | 0.00 | 53 | 1015.4 |
| 20260903172604 | 91 | 169 | 7.0 | 14.0 | 0.00 | 0.00 | 0.00 | 53 | 1015.5 |
| 20260903172504 | 91 | 164 | 6.0 | 14.0 | 0.00 | 0.00 | 0.00 | 53 | 1015.5 |
| 20260903172404 | 91 | 158 | 6.0 | 14.0 | 0.00 | 0.00 | 0.00 | 53 | 1015.5 |
| 20260903172306 | 91 | 152 | 5.0 | 14.0 | 0.00 | 0.00 | 0.00 | 53 | 1015.5 |
| 20260903172204 | 91 | 140 | 5.0 | 12.0 | 0.00 | 0.00 | 0.00 | 53 | 1015.6 |
| 20260903172104 | 91 | 132 | 5.0 | 16.0 | 0.00 | 0.00 | 0.00 | 53 | 1015.6 |
| 20260903172004 | 92 | 132 | 5.0 | 16.0 | 0.00 | 0.00 | 0.00 | 52 | 1015.6 |
| 20260903171904 | 92 | 135 | 5.0 | 16.0 | 0.00 | 0.00 | 0.00 | 52 | 1015.6 |
| 20260903171804 | 92 | 134 | 5.0 | 16.0 | 0.00 | 0.00 | 0.00 | 52 | 1015.5 |
| 20260903171704 | 92 | 134 | 4.0 | 16.0 | 0.00 | 0.00 | 0.00 | 52 | 1015.6 |
| 20260903171604 | 92 | 133 | 4.0 | 16.0 | 0.00 | 0.00 | 0.00 | 52 | 1015.6 |
| 20260903171504 | 92 | 138 | 4.0 | 16.0 | 0.00 | 0.00 | 0.00 | 53 | 1015.7 |
| 20260903171404 | 92 | 137 | 4.0 | 16.0 | 0.00 | 0.00 | 0.00 | 53 | 1015.7 |
| 20260903171304 | 92 | 139 | 4.0 | 16.0 | 0.00 | 0.00 | 0.00 | 53 | 1015.7 |
| 20260903171005 | 91 | 138 | 5.0 | 13.0 | 0.00 | 0.00 | 0.00 | 54 | 1015.7 |
| 20260903170904 | 91 | 134 | 5.0 | 13.0 | 0.00 | 0.00 | 0.00 | 53 | 1015.6 |
| 20260903170804 | 91 | 136 | 5.0 | 13.0 | 0.00 | 0.00 | 0.00 | 53 | 1015.6 |
| 20260903170704 | 91 | 143 | 5.0 | 13.0 | 0.00 | 0.00 | 0.00 | 54 | 1015.8 |
| 20260903170604 | 91 | 148 | 5.0 | 13.0 | 0.00 | 0.00 | 0.00 | 54 | 1015.8 |
| 20260903170504 | 91 | 146 | 5.0 | 13.0 | 0.00 | 0.00 | 0.00 | 54 | 1015.8 |
| 20260903170304 | 91 | 148 | 4.0 | 13.0 | 0.00 | 0.00 | 0.00 | 53 | 1015.7 |
| 20260903170204 | 92 | 152 | 4.0 | 13.0 | 0.00 | 0.00 | 0.00 | 53 | 1015.7 |
| 20260903170104 | 92 | 156 | 4.0 | 9.0 | 0.00 | 0.00 | 0.00 | 54 | 1015.8 |
| 20260903170004 | 91 | 153 | 4.0 | 9.0 | 0.00 | 0.00 | 0.00 | 54 | 1015.8 |
| 20260903165904 | 91 | 156 | 4.0 | 9.0 | 0.00 | 0.00 | 0.00 | 54 | 1015.8 |
| 20260903165804 | 91 | 152 | 4.0 | 9.0 | 0.00 | 0.00 | 0.00 | 53 | 1015.7 |
| 20260903165604 | 91 | 141 | 3.0 | 8.0 | 0.00 | 0.00 | 0.00 | 55 | 1015.8 |
| 20260903165504 | 91 | 141 | 4.0 | 8.0 | 0.00 | 0.00 | 0.00 | 55 | 1015.7 |
| 20260903165405 | 91 | 146 | 4.0 | 12.0 | 0.00 | 0.00 | 0.00 | 55 | 1015.8 |
| 20260903165204 | 91 | 148 | 4.0 | 13.0 | 0.00 | 0.00 | 0.00 | 55 | 1015.8 |
| 20260903165104 | 91 | 150 | 5.0 | 13.0 | 0.00 | 0.00 | 0.00 | 54 | 1015.7 |
| 20260903165004 | 91 | 157 | 5.0 | 14.0 | 0.00 | 0.00 | 0.00 | 55 | 1015.8 |
| 20260903164904 | 91 | 160 | 5.0 | 14.0 | 0.00 | 0.00 | 0.00 | 55 | 1015.8 |
| 20260903164804 | 90 | 159 | 5.0 | 14.0 | 0.00 | 0.00 | 0.00 | 55 | 1015.8 |
| 20260903164504 | 90 | 167 | 4.0 | 14.0 | 0.00 | 0.00 | 0.00 | 55 | 1015.7 |
| 20260903164404 | 90 | 164 | 4.0 | 14.0 | 0.00 | 0.00 | 0.00 | 55 | 1015.8 |
| 20260903164304 | 90 | 162 | 4.0 | 14.0 | 0.00 | 0.00 | 0.00 | 55 | 1015.9 |
| 20260903164204 | 91 | 162 | 4.0 | 14.0 | 0.00 | 0.00 | 0.00 | 55 | 1015.8 |
| 20260903164105 | 91 | 166 | 3.0 | 14.0 | 0.00 | 0.00 | 0.00 | 54 | 1015.8 |
| 20260903163905 | 91 | 164 | 3.0 | 8.0 | 0.00 | 0.00 | 0.00 | 55 | 1015.8 |
| 20260903163704 | 90 | 167 | 4.0 | 9.0 | 0.00 | 0.00 | 0.00 | 56 | 1015.8 |
| 20260903163504 | 90 | 173 | 4.0 | 11.0 | 0.00 | 0.00 | 0.00 | 57 | 1015.9 |
| 20260903163404 | 90 | 170 | 4.0 | 11.0 | 0.00 | 0.00 | 0.00 | 57 | 1015.9 |
| 20260903163104 | 89 | 173 | 5.0 | 11.0 | 0.00 | 0.00 | 0.00 | 57 | 1015.9 |
| 20260903163004 | 89 | 173 | 5.0 | 12.0 | 0.00 | 0.00 | 0.00 | 57 | 1015.9 |
| 20260903162804 | 89 | 182 | 5.0 | 12.0 | 0.00 | 0.00 | 0.00 | 57 | 1015.8 |
| 20260903162704 | 89 | 181 | 5.0 | 12.0 | 0.00 | 0.00 | 0.00 | 57 | 1015.9 |
| 20260903162604 | 89 | 178 | 5.0 | 12.0 | 0.00 | 0.00 | 0.00 | 58 | 1015.9 |
| 20260903162504 | 89 | 177 | 5.0 | 12.0 | 0.00 | 0.00 | 0.00 | 58 | 1015.8 |
| 20260903162404 | 89 | 177 | 5.0 | 12.0 | 0.00 | 0.00 | 0.00 | 58 | 1015.9 |
| 20260903162306 | 88 | 175 | 5.0 | 12.0 | 0.00 | 0.00 | 0.00 | 58 | 1015.8 |
| 20260903162204 | 88 | 175 | 5.0 | 12.0 | 0.00 | 0.00 | 0.00 | 57 | 1015.8 |
| 20260903162104 | 89 | 176 | 5.0 | 14.0 | 0.00 | 0.00 | 0.00 | 57 | 1015.8 |
| 20260903162004 | 89 | 177 | 6.0 | 14.0 | 0.00 | 0.00 | 0.00 | 58 | 1015.8 |
| 20260903161904 | 88 | 182 | 5.0 | 15.0 | 0.00 | 0.00 | 0.00 | 58 | 1015.8 |
| 20260903161804 | 88 | 176 | 6.0 | 15.0 | 0.00 | 0.00 | 0.00 | 59 | 1015.8 |
| 20260903161705 | 88 | 178 | 6.0 | 15.0 | 0.00 | 0.00 | 0.00 | 59 | 1015.9 |
| 20260903161604 | 88 | 178 | 6.0 | 15.0 | 0.00 | 0.00 | 0.00 | 59 | 1015.8 |
| 20260903161504 | 88 | 177 | 6.0 | 15.0 | 0.00 | 0.00 | 0.00 | 59 | 1015.8 |
| 20260903161304 | 87 | 182 | 6.0 | 16.0 | 0.00 | 0.00 | 0.00 | 59 | 1015.9 |
| 20260903161204 | 87 | 184 | 6.0 | 16.0 | 0.00 | 0.00 | 0.00 | 59 | 1015.8 |
| 20260903161104 | 87 | 184 | 6.0 | 16.0 | 0.00 | 0.00 | 0.00 | 59 | 1015.8 |
| 20260903161004 | 88 | 184 | 6.0 | 16.0 | 0.00 | 0.00 | 0.00 | 59 | 1015.8 |
| 20260903160904 | 88 | 177 | 6.0 | 16.0 | 0.00 | 0.00 | 0.00 | 59 | 1015.9 |
| 20260903160804 | 87 | 182 | 7.0 | 16.0 | 0.00 | 0.00 | 0.00 | 59 | 1015.8 |
| 20260903160704 | 87 | 184 | 7.0 | 16.0 | 0.00 | 0.00 | 0.00 | 60 | 1015.9 |
| 20260903160604 | 87 | 184 | 7.0 | 16.0 | 0.00 | 0.00 | 0.00 | 60 | 1015.9 |
| 20260903160404 | 87 | 183 | 7.0 | 15.0 | 0.00 | 0.00 | 0.00 | 60 | 1015.9 |
| 20260903160304 | 87 | 185 | 6.0 | 15.0 | 0.00 | 0.00 | 0.00 | 60 | 1015.9 |
| 20260903160204 | 87 | 183 | 6.0 | 15.0 | 0.00 | 0.00 | 0.00 | 60 | 1015.9 |
| 20260903160104 | 87 | 181 | 6.0 | 15.0 | 0.00 | 0.00 | 0.00 | 60 | 1015.9 |
| 20260903160004 | 87 | 181 | 6.0 | 15.0 | 0.00 | 0.00 | 0.00 | 60 | 1015.9 |
| 20260903155904 | 87 | 181 | 6.0 | 15.0 | 0.00 | 0.00 | 0.00 | 60 | 1015.9 |
| 20260903155804 | 87 | 175 | 6.0 | 14.0 | 0.00 | 0.00 | 0.00 | 60 | 1015.9 |
| 20260903155704 | 87 | 172 | 6.0 | 14.0 | 0.00 | 0.00 | 0.00 | 60 | 1015.9 |
| 20260903155504 | 87 | 169 | 6.0 | 16.0 | 0.00 | 0.00 | 0.00 | 61 | 1015.9 |
| 20260903155306 | 87 | 171 | 6.0 | 16.0 | 0.00 | 0.00 | 0.00 | 61 | 1015.8 |
| 20260903155204 | 86 | 169 | 6.0 | 16.0 | 0.00 | 0.00 | 0.00 | 62 | 1015.9 |
| 20260903155104 | 86 | 168 | 6.0 | 16.0 | 0.00 | 0.00 | 0.00 | 61 | 1015.8 |
| 20260903155004 | 86 | 166 | 6.0 | 16.0 | 0.00 | 0.00 | 0.00 | 61 | 1015.8 |
| 20260903154904 | 86 | 163 | 6.0 | 16.0 | 0.00 | 0.00 | 0.00 | 62 | 1015.9 |
| 20260903154805 | 86 | 164 | 6.0 | 16.0 | 0.00 | 0.00 | 0.00 | 61 | 1015.8 |
| 20260903154704 | 86 | 164 | 6.0 | 16.0 | 0.00 | 0.00 | 0.00 | 61 | 1015.9 |
| 20260903154604 | 86 | 168 | 5.0 | 16.0 | 0.00 | 0.00 | 0.00 | 61 | 1015.9 |
| 20260903154404 | 86 | 160 | 5.0 | 14.0 | 0.00 | 0.00 | 0.00 | 61 | 1015.9 |
| 20260903154304 | 86 | 164 | 5.0 | 15.0 | 0.00 | 0.00 | 0.00 | 62 | 1015.9 |
| 20260903154204 | 86 | 165 | 6.0 | 15.0 | 0.00 | 0.00 | 0.00 | 62 | 1015.8 |
| 20260903154104 | 86 | 165 | 6.0 | 15.0 | 0.00 | 0.00 | 0.00 | 61 | 1015.9 |
| 20260903153904 | 86 | 165 | 6.0 | 15.0 | 0.00 | 0.00 | 0.00 | 62 | 1015.9 |
| 20260903153804 | 86 | 162 | 5.0 | 15.0 | 0.00 | 0.00 | 0.00 | 62 | 1015.8 |
| 20260903153704 | 86 | 160 | 5.0 | 15.0 | 0.00 | 0.00 | 0.00 | 62 | 1015.8 |
| 20260903153504 | 86 | 163 | 6.0 | 15.0 | 0.00 | 0.00 | 0.00 | 63 | 1015.8 |
| 20260903153404 | 86 | 162 | 6.0 | 15.0 | 0.00 | 0.00 | 0.00 | 62 | 1015.8 |
| 20260903153304 | 86 | 159 | 6.0 | 12.0 | 0.00 | 0.00 | 0.00 | 62 | 1015.9 |
| 20260903153104 | 86 | 159 | 6.0 | 12.0 | 0.00 | 0.00 | 0.00 | 62 | 1015.9 |
| 20260903153004 | 86 | 158 | 5.0 | 12.0 | 0.00 | 0.00 | 0.00 | 62 | 1016.0 |
| 20260903152904 | 86 | 159 | 5.0 | 12.0 | 0.00 | 0.00 | 0.00 | 63 | 1016.0 |
| 20260903152704 | 85 | 164 | 5.0 | 12.0 | 0.00 | 0.00 | 0.00 | 63 | 1016.0 |
| 20260903152504 | 85 | 167 | 5.0 | 12.0 | 0.00 | 0.00 | 0.00 | 63 | 1016.0 |
| 20260903152405 | 85 | 168 | 5.0 | 11.0 | 0.00 | 0.00 | 0.00 | 63 | 1016.0 |
| 20260903152306 | 85 | 163 | 5.0 | 11.0 | 0.00 | 0.00 | 0.00 | 63 | 1016.0 |
| 20260903152204 | 85 | 166 | 5.0 | 14.0 | 0.00 | 0.00 | 0.00 | 63 | 1016.0 |
| 20260903152004 | 85 | 174 | 6.0 | 14.0 | 0.00 | 0.00 | 0.00 | 64 | 1016.1 |
| 20260903151904 | 85 | 176 | 6.0 | 14.0 | 0.00 | 0.00 | 0.00 | 64 | 1016.0 |
| 20260903151804 | 85 | 181 | 6.0 | 14.0 | 0.00 | 0.00 | 0.00 | 64 | 1016.0 |
| 20260903151704 | 85 | 181 | 6.0 | 14.0 | 0.00 | 0.00 | 0.00 | 64 | 1016.0 |
| 20260903151604 | 85 | 182 | 6.0 | 14.0 | 0.00 | 0.00 | 0.00 | 64 | 1016.0 |
| 20260903151504 | 85 | 183 | 7.0 | 14.0 | 0.00 | 0.00 | 0.00 | 64 | 1016.0 |
| 20260903151404 | 85 | 184 | 7.0 | 14.0 | 0.00 | 0.00 | 0.00 | 64 | 1016.0 |
| 20260903151204 | 84 | 185 | 7.0 | 13.0 | 0.00 | 0.00 | 0.00 | 65 | 1016.0 |
| 20260903151104 | 84 | 184 | 6.0 | 13.0 | 0.00 | 0.00 | 0.00 | 65 | 1016.0 |
| 20260903151005 | 84 | 182 | 6.0 | 13.0 | 0.00 | 0.00 | 0.00 | 64 | 1016.0 |
| 20260903150905 | 84 | 181 | 6.0 | 13.0 | 0.00 | 0.00 | 0.00 | 65 | 1016.0 |
| 20260903150804 | 84 | 173 | 5.0 | 12.0 | 0.00 | 0.00 | 0.00 | 65 | 1016.0 |
| 20260903150704 | 84 | 172 | 5.0 | 12.0 | 0.00 | 0.00 | 0.00 | 64 | 1016.0 |
| 20260903150604 | 84 | 169 | 5.0 | 12.0 | 0.00 | 0.00 | 0.00 | 64 | 1016.0 |
| 20260903150504 | 84 | 165 | 5.0 | 12.0 | 0.00 | 0.00 | 0.00 | 64 | 1016.1 |
| 20260903150404 | 85 | 165 | 5.0 | 12.0 | 0.00 | 0.00 | 0.00 | 64 | 1016.1 |
| 20260903150304 | 85 | 166 | 5.0 | 12.0 | 0.00 | 0.00 | 0.00 | 64 | 1016.0 |
| 20260903150204 | 85 | 165 | 4.0 | 12.0 | 0.00 | 0.00 | 0.00 | 64 | 1016.1 |
| 20260903150104 | 85 | 164 | 4.0 | 12.0 | 0.00 | 0.00 | 0.00 | 65 | 1016.0 |
| 20260903150004 | 84 | 163 | 4.0 | 12.0 | 0.00 | 0.00 | 0.00 | 65 | 1016.0 |
| 20260903145804 | 84 | 164 | 5.0 | 12.0 | 0.00 | 0.00 | 0.00 | 65 | 1016.0 |
| 20260903145306 | 84 | 163 | 5.0 | 14.0 | 0.00 | 0.00 | 0.00 | 65 | 1016.0 |
| 20260903145204 | 84 | 164 | 5.0 | 14.0 | 0.00 | 0.00 | 0.00 | 66 | 1016.1 |
| 20260903145104 | 84 | 164 | 5.0 | 14.0 | 0.00 | 0.00 | 0.00 | 66 | 1016.1 |
| 20260903145004 | 84 | 163 | 5.0 | 14.0 | 0.00 | 0.00 | 0.00 | 66 | 1016.1 |
| 20260903144904 | 84 | 168 | 5.0 | 14.0 | 0.00 | 0.00 | 0.00 | 66 | 1016.1 |
| 20260903144804 | 84 | 172 | 5.0 | 14.0 | 0.00 | 0.00 | 0.00 | 66 | 1016.1 |
| 20260903144704 | 84 | 170 | 6.0 | 14.0 | 0.00 | 0.00 | 0.00 | 66 | 1016.0 |
| 20260903144504 | 83 | 173 | 6.0 | 14.0 | 0.00 | 0.00 | 0.00 | 66 | 1016.0 |
| 20260903144404 | 83 | 175 | 6.0 | 14.0 | 0.00 | 0.00 | 0.00 | 66 | 1016.1 |
| 20260903144304 | 83 | 173 | 6.0 | 13.0 | 0.00 | 0.00 | 0.00 | 66 | 1016.0 |
| 20260903144204 | 83 | 171 | 6.0 | 17.0 | 0.00 | 0.00 | 0.00 | 67 | 1016.0 |
| 20260903144104 | 83 | 170 | 6.0 | 17.0 | 0.00 | 0.00 | 0.00 | 67 | 1016.1 |
| 20260903144004 | 83 | 172 | 6.0 | 17.0 | 0.00 | 0.00 | 0.00 | 66 | 1016.1 |
| 20260903143904 | 83 | 168 | 6.0 | 17.0 | 0.00 | 0.00 | 0.00 | 67 | 1016.0 |
| 20260903143804 | 83 | 166 | 6.0 | 17.0 | 0.00 | 0.00 | 0.00 | 67 | 1016.0 |
| 20260903143704 | 83 | 166 | 6.0 | 17.0 | 0.00 | 0.00 | 0.00 | 67 | 1016.1 |
| 20260903143604 | 83 | 164 | 6.0 | 17.0 | 0.00 | 0.00 | 0.00 | 67 | 1016.0 |
| 20260903143304 | 83 | 159 | 5.0 | 17.0 | 0.00 | 0.00 | 0.00 | 67 | 1016.0 |
| 20260903143205 | 83 | 161 | 5.0 | 16.0 | 0.00 | 0.00 | 0.00 | 67 | 1016.0 |
| 20260903143105 | 83 | 164 | 5.0 | 11.0 | 0.00 | 0.00 | 0.00 | 67 | 1016.0 |
| 20260903143005 | 83 | 162 | 5.0 | 13.0 | 0.00 | 0.00 | 0.00 | 67 | 1016.0 |
| 20260903142905 | 83 | 160 | 5.0 | 13.0 | 0.00 | 0.00 | 0.00 | 67 | 1016.1 |
| 20260903142805 | 83 | 162 | 5.0 | 13.0 | 0.00 | 0.00 | 0.00 | 67 | 1016.0 |
| 20260903142704 | 83 | 162 | 5.0 | 13.0 | 0.00 | 0.00 | 0.00 | 67 | 1016.1 |
| 20260903142604 | 83 | 162 | 5.0 | 13.0 | 0.00 | 0.00 | 0.00 | 67 | 1016.0 |
| 20260903142504 | 83 | 165 | 5.0 | 13.0 | 0.00 | 0.00 | 0.00 | 68 | 1016.1 |
| 20260903142404 | 82 | 168 | 5.0 | 13.0 | 0.00 | 0.00 | 0.00 | 68 | 1016.1 |
| 20260903142306 | 82 | 165 | 6.0 | 13.0 | 0.00 | 0.00 | 0.00 | 67 | 1016.1 |
| 20260903142204 | 82 | 164 | 6.0 | 13.0 | 0.00 | 0.00 | 0.00 | 67 | 1016.1 |
| 20260903142104 | 82 | 163 | 5.0 | 13.0 | 0.00 | 0.00 | 0.00 | 67 | 1016.2 |
| 20260903142004 | 82 | 164 | 6.0 | 13.0 | 0.00 | 0.00 | 0.00 | 68 | 1016.1 |
| 20260903141904 | 82 | 167 | 6.0 | 13.0 | 0.00 | 0.00 | 0.00 | 68 | 1016.2 |
| 20260903141804 | 82 | 164 | 5.0 | 13.0 | 0.00 | 0.00 | 0.00 | 68 | 1016.2 |
| 20260903141704 | 82 | 166 | 5.0 | 13.0 | 0.00 | 0.00 | 0.00 | 68 | 1016.1 |
| 20260903141604 | 82 | 168 | 5.0 | 13.0 | 0.00 | 0.00 | 0.00 | 68 | 1016.2 |
| 20260903141504 | 82 | 167 | 5.0 | 13.0 | 0.00 | 0.00 | 0.00 | 68 | 1016.1 |
| 20260903141404 | 82 | 163 | 5.0 | 13.0 | 0.00 | 0.00 | 0.00 | 68 | 1016.2 |
| 20260903141304 | 82 | 165 | 5.0 | 13.0 | 0.00 | 0.00 | 0.00 | 68 | 1016.2 |
| 20260903141204 | 82 | 163 | 4.0 | 13.0 | 0.00 | 0.00 | 0.00 | 68 | 1016.2 |
| 20260903141104 | 82 | 161 | 4.0 | 13.0 | 0.00 | 0.00 | 0.00 | 68 | 1016.3 |
| 20260903140904 | 82 | 168 | 4.0 | 12.0 | 0.00 | 0.00 | 0.00 | 68 | 1016.3 |
| 20260903140804 | 82 | 169 | 5.0 | 13.0 | 0.00 | 0.00 | 0.00 | 68 | 1016.3 |
| 20260903140704 | 82 | 173 | 5.0 | 13.0 | 0.00 | 0.00 | 0.00 | 69 | 1016.2 |
| 20260903140404 | 82 | 172 | 5.0 | 13.0 | 0.00 | 0.00 | 0.00 | 69 | 1016.3 |
| 20260903140304 | 82 | 171 | 5.0 | 13.0 | 0.00 | 0.00 | 0.00 | 69 | 1016.3 |
| 20260903140204 | 82 | 172 | 5.0 | 13.0 | 0.00 | 0.00 | 0.00 | 69 | 1016.4 |
| 20260903140005 | 81 | 172 | 4.0 | 13.0 | 0.00 | 0.00 | 0.00 | 69 | 1016.4 |
| 20260903135904 | 81 | 170 | 4.0 | 13.0 | 0.00 | 0.00 | 0.00 | 69 | 1016.4 |
| 20260903135805 | 81 | 170 | 4.0 | 12.0 | 0.00 | 0.00 | 0.00 | 69 | 1016.4 |
| 20260903135705 | 81 | 167 | 4.0 | 11.0 | 0.00 | 0.00 | 0.00 | 69 | 1016.4 |
| 20260903135604 | 81 | 169 | 4.0 | 11.0 | 0.00 | 0.00 | 0.00 | 69 | 1016.4 |
| 20260903135204 | 81 | 170 | 4.0 | 12.0 | 0.00 | 0.00 | 0.00 | 70 | 1016.4 |
| 20260903135104 | 81 | 172 | 4.0 | 12.0 | 0.00 | 0.00 | 0.00 | 69 | 1016.3 |
| 20260903135004 | 81 | 171 | 5.0 | 12.0 | 0.00 | 0.00 | 0.00 | 70 | 1016.3 |
| 20260903134804 | 81 | 169 | 5.0 | 12.0 | 0.00 | 0.00 | 0.00 | 69 | 1016.3 |
| 20260903134704 | 81 | 168 | 4.0 | 12.0 | 0.00 | 0.00 | 0.00 | 69 | 1016.3 |
| 20260903134605 | 81 | 164 | 4.0 | 12.0 | 0.00 | 0.00 | 0.00 | 69 | 1016.2 |
| 20260903134505 | 81 | 161 | 4.0 | 12.0 | 0.00 | 0.00 | 0.00 | 70 | 1016.3 |
| 20260903134405 | 81 | 156 | 4.0 | 12.0 | 0.00 | 0.00 | 0.00 | 70 | 1016.3 |
| 20260903134204 | 81 | 157 | 3.0 | 12.0 | 0.00 | 0.00 | 0.00 | 70 | 1016.3 |
| 20260903134104 | 81 | 150 | 3.0 | 8.0 | 0.00 | 0.00 | 0.00 | 70 | 1016.3 |
| 20260903134004 | 81 | 152 | 3.0 | 8.0 | 0.00 | 0.00 | 0.00 | 70 | 1016.3 |
| 20260903133804 | 80 | 149 | 3.0 | 7.0 | 0.00 | 0.00 | 0.00 | 70 | 1016.4 |
| 20260903133704 | 80 | 154 | 3.0 | 8.0 | 0.00 | 0.00 | 0.00 | 70 | 1016.4 |
| 20260903133604 | 80 | 157 | 3.0 | 8.0 | 0.00 | 0.00 | 0.00 | 70 | 1016.4 |
| 20260903133404 | 80 | 160 | 3.0 | 9.0 | 0.00 | 0.00 | 0.00 | 71 | 1016.4 |
| 20260903133304 | 80 | 160 | 3.0 | 9.0 | 0.00 | 0.00 | 0.00 | 71 | 1016.4 |
| 20260903133204 | 80 | 157 | 3.0 | 9.0 | 0.00 | 0.00 | 0.00 | 71 | 1016.4 |
| 20260903133104 | 80 | 158 | 4.0 | 9.0 | 0.00 | 0.00 | 0.00 | 71 | 1016.4 |
| 20260903133004 | 80 | 156 | 4.0 | 9.0 | 0.00 | 0.00 | 0.00 | 71 | 1016.4 |
| 20260903132904 | 79 | 156 | 3.0 | 9.0 | 0.00 | 0.00 | 0.00 | 72 | 1016.4 |
| 20260903132804 | 79 | 154 | 3.0 | 9.0 | 0.00 | 0.00 | 0.00 | 71 | 1016.4 |
| 20260903132704 | 79 | 146 | 3.0 | 9.0 | 0.00 | 0.00 | 0.00 | 72 | 1016.4 |
| 20260903132604 | 79 | 143 | 3.0 | 9.0 | 0.00 | 0.00 | 0.00 | 72 | 1016.4 |
| 20260903132204 | 79 | 139 | 3.0 | 8.0 | 0.00 | 0.00 | 0.00 | 72 | 1016.5 |
| 20260903132104 | 79 | 137 | 2.0 | 8.0 | 0.00 | 0.00 | 0.00 | 73 | 1016.5 |
| 20260903132004 | 78 | 136 | 2.0 | 8.0 | 0.00 | 0.00 | 0.00 | 73 | 1016.5 |
| 20260903131904 | 78 | 138 | 2.0 | 8.0 | 0.00 | 0.00 | 0.00 | 72 | 1016.5 |
| 20260903131804 | 78 | 137 | 2.0 | 8.0 | 0.00 | 0.00 | 0.00 | 73 | 1016.5 |
| 20260903131704 | 78 | 138 | 2.0 | 8.0 | 0.00 | 0.00 | 0.00 | 72 | 1016.5 |
| 20260903131405 | 78 | 142 | 2.0 | 8.0 | 0.00 | 0.00 | 0.00 | 72 | 1016.5 |
| 20260903131204 | 78 | 141 | 2.0 | 8.0 | 0.00 | 0.00 | 0.00 | 72 | 1016.5 |
| 20260903131104 | 78 | 143 | 2.0 | 6.0 | 0.00 | 0.00 | 0.00 | 72 | 1016.5 |
| 20260903131004 | 78 | 139 | 2.0 | 6.0 | 0.00 | 0.00 | 0.00 | 72 | 1016.5 |
| 20260903130804 | 78 | 144 | 2.0 | 6.0 | 0.00 | 0.00 | 0.00 | 72 | 1016.4 |
| 20260903130605 | 78 | 146 | 2.0 | 7.0 | 0.00 | 0.00 | 0.00 | 72 | 1016.5 |
| 20260903130504 | 78 | 144 | 2.0 | 7.0 | 0.00 | 0.00 | 0.00 | 72 | 1016.5 |
| 20260903130404 | 78 | 147 | 2.0 | 7.0 | 0.00 | 0.00 | 0.00 | 72 | 1016.5 |
| 20260903130304 | 78 | 148 | 2.0 | 7.0 | 0.00 | 0.00 | 0.00 | 72 | 1016.5 |
| 20260903130204 | 78 | 150 | 2.0 | 7.0 | 0.00 | 0.00 | 0.00 | 72 | 1016.4 |
| 20260903130105 | 78 | 152 | 2.0 | 7.0 | 0.00 | 0.00 | 0.00 | 72 | 1016.5 |
| 20260903130005 | 78 | 152 | 2.0 | 7.0 | 0.00 | 0.00 | 0.00 | 72 | 1016.4 |
| 20260903125905 | 78 | 151 | 2.0 | 7.0 | 0.00 | 0.00 | 0.00 | 73 | 1016.4 |
| 20260903125704 | 78 | 148 | 2.0 | 6.0 | 0.00 | 0.00 | 0.00 | 73 | 1016.4 |
| 20260903125604 | 78 | 149 | 2.0 | 6.0 | 0.00 | 0.00 | 0.00 | 73 | 1016.4 |
| 20260903125404 | 78 | 149 | 2.0 | 6.0 | 0.00 | 0.00 | 0.00 | 73 | 1016.4 |
| 20260903125305 | 78 | 149 | 2.0 | 6.0 | 0.00 | 0.00 | 0.00 | 73 | 1016.3 |
| 20260903125204 | 78 | 146 | 2.0 | 6.0 | 0.00 | 0.00 | 0.00 | 73 | 1016.3 |
| 20260903125104 | 78 | 142 | 2.0 | 6.0 | 0.00 | 0.00 | 0.00 | 73 | 1016.3 |
| 20260903125004 | 78 | 143 | 2.0 | 6.0 | 0.00 | 0.00 | 0.00 | 73 | 1016.3 |
| 20260903124904 | 78 | 145 | 2.0 | 6.0 | 0.00 | 0.00 | 0.00 | 73 | 1016.4 |
| 20260903124704 | 77 | 144 | 2.0 | 4.0 | 0.00 | 0.00 | 0.00 | 73 | 1016.4 |
| 20260903124504 | 77 | 143 | 2.0 | 4.0 | 0.00 | 0.00 | 0.00 | 74 | 1016.4 |
| 20260903124404 | 77 | 141 | 2.0 | 4.0 | 0.00 | 0.00 | 0.00 | 74 | 1016.4 |
| 20260903124304 | 77 | 140 | 2.0 | 4.0 | 0.00 | 0.00 | 0.00 | 74 | 1016.4 |
| 20260903124104 | 77 | 145 | 2.0 | 4.0 | 0.00 | 0.00 | 0.00 | 74 | 1016.4 |
| 20260903124005 | 77 | 144 | 2.0 | 4.0 | 0.00 | 0.00 | 0.00 | 74 | 1016.3 |
| 20260903123804 | 77 | 144 | 2.0 | 4.0 | 0.00 | 0.00 | 0.00 | 74 | 1016.3 |
| 20260903123704 | 77 | 143 | 2.0 | 4.0 | 0.00 | 0.00 | 0.00 | 74 | 1016.3 |
| 20260903123604 | 77 | 154 | 2.0 | 7.0 | 0.00 | 0.00 | 0.00 | 74 | 1016.3 |
| 20260903123504 | 77 | 156 | 2.0 | 7.0 | 0.00 | 0.00 | 0.00 | 74 | 1016.3 |
| 20260903123404 | 77 | 155 | 2.0 | 7.0 | 0.00 | 0.00 | 0.00 | 74 | 1016.3 |
| 20260903123304 | 77 | 156 | 2.0 | 7.0 | 0.00 | 0.00 | 0.00 | 74 | 1016.3 |
| 20260903123204 | 77 | 155 | 2.0 | 7.0 | 0.00 | 0.00 | 0.00 | 74 | 1016.3 |
| 20260903123104 | 77 | 155 | 2.0 | 7.0 | 0.00 | 0.00 | 0.00 | 74 | 1016.3 |
| 20260903123004 | 77 | 153 | 2.0 | 7.0 | 0.00 | 0.00 | 0.00 | 74 | 1016.3 |
| 20260903122904 | 77 | 152 | 2.0 | 7.0 | 0.00 | 0.00 | 0.00 | 73 | 1016.2 |
| 20260903122804 | 77 | 152 | 2.0 | 7.0 | 0.00 | 0.00 | 0.00 | 73 | 1016.2 |
| 20260903122704 | 77 | 153 | 2.0 | 7.0 | 0.00 | 0.00 | 0.00 | 74 | 1016.2 |
| 20260903122604 | 77 | 143 | 2.0 | 7.0 | 0.00 | 0.00 | 0.00 | 73 | 1016.1 |
| 20260903122504 | 77 | 142 | 2.0 | 7.0 | 0.00 | 0.00 | 0.00 | 73 | 1016.2 |
| 20260903122404 | 77 | 143 | 2.0 | 7.0 | 0.00 | 0.00 | 0.00 | 73 | 1016.1 |
| 20260903122204 | 77 | 141 | 2.0 | 5.0 | 0.00 | 0.00 | 0.00 | 73 | 1016.2 |
| 20260903122104 | 77 | 140 | 1.0 | 5.0 | 0.00 | 0.00 | 0.00 | 73 | 1016.1 |
| 20260903122004 | 77 | 141 | 2.0 | 5.0 | 0.00 | 0.00 | 0.00 | 73 | 1016.1 |
| 20260903121904 | 77 | 144 | 1.0 | 5.0 | 0.00 | 0.00 | 0.00 | 73 | 1016.1 |
| 20260903121804 | 77 | 143 | 1.0 | 5.0 | 0.00 | 0.00 | 0.00 | 73 | 1016.1 |
| 20260903121704 | 77 | 143 | 1.0 | 5.0 | 0.00 | 0.00 | 0.00 | 73 | 1016.1 |
| 20260903121504 | 77 | 146 | 2.0 | 5.0 | 0.00 | 0.00 | 0.00 | 73 | 1016.0 |
| 20260903121404 | 77 | 145 | 2.0 | 5.0 | 0.00 | 0.00 | 0.00 | 73 | 1016.0 |
| 20260903121304 | 77 | 144 | 1.0 | 5.0 | 0.00 | 0.00 | 0.00 | 73 | 1016.0 |
| 20260903121204 | 77 | 147 | 1.0 | 5.0 | 0.00 | 0.00 | 0.00 | 73 | 1016.0 |
| 20260903121005 | 77 | 152 | 2.0 | 5.0 | 0.00 | 0.00 | 0.00 | 73 | 1015.9 |
| 20260903120904 | 77 | 153 | 2.0 | 6.0 | 0.00 | 0.00 | 0.00 | 73 | 1016.0 |
| 20260903120804 | 77 | 154 | 2.0 | 6.0 | 0.00 | 0.00 | 0.00 | 73 | 1015.9 |
| 20260903120704 | 77 | 156 | 1.0 | 6.0 | 0.00 | 0.00 | 0.00 | 73 | 1015.9 |
| 20260903120604 | 77 | 156 | 1.0 | 6.0 | 0.00 | 0.00 | 0.00 | 73 | 1015.9 |
| 20260903120404 | 77 | 161 | 2.0 | 6.0 | 0.00 | 0.00 | 0.00 | 73 | 1016.0 |
| 20260903120304 | 77 | 164 | 2.0 | 7.0 | 0.00 | 0.00 | 0.00 | 73 | 1015.9 |
| 20260903120204 | 77 | 162 | 2.0 | 7.0 | 0.00 | 0.00 | 0.00 | 73 | 1016.0 |
| 20260903120104 | 77 | 163 | 2.0 | 10.0 | 0.00 | 0.00 | 0.00 | 73 | 1016.0 |
| 20260903120004 | 77 | 162 | 2.0 | 10.0 | 0.00 | 0.00 | 0.00 | 73 | 1015.9 |
| 20260903115904 | 77 | 160 | 2.0 | 10.0 | 0.00 | 0.00 | 0.00 | 73 | 1015.9 |
| 20260903115804 | 77 | 160 | 2.0 | 10.0 | 0.00 | 0.00 | 0.00 | 73 | 1015.9 |
| 20260903115704 | 77 | 159 | 2.0 | 10.0 | 0.00 | 0.00 | 0.00 | 73 | 1015.9 |
| 20260903115604 | 77 | 158 | 2.0 | 10.0 | 0.00 | 0.00 | 0.00 | 73 | 1015.9 |
| 20260903115504 | 77 | 155 | 2.0 | 10.0 | 0.00 | 0.00 | 0.00 | 72 | 1015.8 |
| 20260903115404 | 77 | 156 | 2.0 | 10.0 | 0.00 | 0.00 | 0.00 | 72 | 1015.8 |
| 20260903115305 | 77 | 156 | 2.0 | 10.0 | 0.00 | 0.00 | 0.00 | 72 | 1015.9 |
| 20260903115204 | 77 | 157 | 2.0 | 10.0 | 0.00 | 0.00 | 0.00 | 72 | 1015.8 |
| 20260903115104 | 77 | 158 | 2.0 | 6.0 | 0.00 | 0.00 | 0.00 | 72 | 1015.8 |
| 20260903115004 | 77 | 161 | 2.0 | 6.0 | 0.00 | 0.00 | 0.00 | 72 | 1015.8 |
| 20260903114804 | 77 | 164 | 2.0 | 6.0 | 0.00 | 0.00 | 0.00 | 72 | 1015.8 |
| 20260903114705 | 77 | 162 | 2.0 | 6.0 | 0.00 | 0.00 | 0.00 | 72 | 1015.8 |
| 20260903114604 | 77 | 163 | 2.0 | 6.0 | 0.00 | 0.00 | 0.00 | 72 | 1015.8 |
| 20260903114505 | 77 | 161 | 2.0 | 6.0 | 0.00 | 0.00 | 0.00 | 72 | 1015.8 |
| 20260903114304 | 77 | 155 | 2.0 | 6.0 | 0.00 | 0.00 | 0.00 | 72 | 1015.7 |
| 20260903114004 | 77 | 144 | 2.0 | 6.0 | 0.00 | 0.00 | 0.00 | 72 | 1015.7 |
| 20260903113904 | 77 | 139 | 2.0 | 5.0 | 0.00 | 0.00 | 0.00 | 72 | 1015.7 |
| 20260903113804 | 77 | 142 | 2.0 | 7.0 | 0.00 | 0.00 | 0.00 | 72 | 1015.7 |
| 20260903113704 | 77 | 141 | 2.0 | 7.0 | 0.00 | 0.00 | 0.00 | 72 | 1015.6 |
| 20260903113604 | 77 | 141 | 2.0 | 7.0 | 0.00 | 0.00 | 0.00 | 72 | 1015.7 |
| 20260903113504 | 77 | 143 | 2.0 | 7.0 | 0.00 | 0.00 | 0.00 | 72 | 1015.6 |
| 20260903113204 | 77 | 146 | 2.0 | 7.0 | 0.00 | 0.00 | 0.00 | 72 | 1015.7 |
| 20260903113104 | 78 | 147 | 2.0 | 7.0 | 0.00 | 0.00 | 0.00 | 72 | 1015.6 |
| 20260903113004 | 78 | 147 | 2.0 | 7.0 | 0.00 | 0.00 | 0.00 | 71 | 1015.7 |
| 20260903112904 | 77 | 148 | 2.0 | 7.0 | 0.00 | 0.00 | 0.00 | 71 | 1015.7 |
| 20260903112804 | 78 | 146 | 2.0 | 7.0 | 0.00 | 0.00 | 0.00 | 71 | 1015.7 |
| 20260903112704 | 78 | 151 | 2.0 | 7.0 | 0.00 | 0.00 | 0.00 | 71 | 1015.7 |
| 20260903112604 | 78 | 149 | 2.0 | 7.0 | 0.00 | 0.00 | 0.00 | 71 | 1015.7 |
| 20260903112504 | 78 | 148 | 2.0 | 7.0 | 0.00 | 0.00 | 0.00 | 71 | 1015.6 |
| 20260903112404 | 78 | 145 | 2.0 | 5.0 | 0.00 | 0.00 | 0.00 | 71 | 1015.6 |
| 20260903112305 | 78 | 145 | 2.0 | 5.0 | 0.00 | 0.00 | 0.00 | 71 | 1015.7 |
| 20260903112204 | 78 | 148 | 2.0 | 5.0 | 0.00 | 0.00 | 0.00 | 71 | 1015.7 |
| 20260903112104 | 78 | 147 | 2.0 | 5.0 | 0.00 | 0.00 | 0.00 | 71 | 1015.7 |
| 20260903112004 | 78 | 144 | 2.0 | 5.0 | 0.00 | 0.00 | 0.00 | 71 | 1015.7 |
| 20260903111904 | 78 | 147 | 2.0 | 5.0 | 0.00 | 0.00 | 0.00 | 71 | 1015.8 |
| 20260903111704 | 78 | 146 | 2.0 | 5.0 | 0.00 | 0.00 | 0.00 | 71 | 1015.8 |
| 20260903111604 | 78 | 148 | 2.0 | 5.0 | 0.00 | 0.00 | 0.00 | 71 | 1015.8 |
| 20260903111504 | 78 | 147 | 2.0 | 5.0 | 0.00 | 0.00 | 0.00 | 71 | 1015.8 |
| 20260903111404 | 78 | 149 | 2.0 | 5.0 | 0.00 | 0.00 | 0.00 | 71 | 1015.8 |
| 20260903111304 | 78 | 149 | 1.0 | 5.0 | 0.00 | 0.00 | 0.00 | 71 | 1015.8 |
| 20260903111205 | 78 | 145 | 2.0 | 5.0 | 0.00 | 0.00 | 0.00 | 71 | 1015.8 |
| 20260903111104 | 78 | 151 | 2.0 | 5.0 | 0.00 | 0.00 | 0.00 | 71 | 1015.8 |
| 20260903111004 | 78 | 155 | 1.0 | 5.0 | 0.00 | 0.00 | 0.00 | 71 | 1015.7 |
| 20260903110905 | 78 | 151 | 2.0 | 5.0 | 0.00 | 0.00 | 0.00 | 71 | 1015.7 |
| 20260903110604 | 78 | 153 | 2.0 | 5.0 | 0.00 | 0.00 | 0.00 | 71 | 1015.8 |
| 20260903110504 | 78 | 155 | 2.0 | 5.0 | 0.00 | 0.00 | 0.00 | 71 | 1015.8 |
| 20260903110404 | 78 | 156 | 2.0 | 5.0 | 0.00 | 0.00 | 0.00 | 70 | 1015.8 |
| 20260903110304 | 78 | 155 | 2.0 | 5.0 | 0.00 | 0.00 | 0.00 | 70 | 1015.8 |
| 20260903110204 | 78 | 156 | 2.0 | 5.0 | 0.00 | 0.00 | 0.00 | 70 | 1015.8 |
| 20260903110104 | 78 | 155 | 2.0 | 5.0 | 0.00 | 0.00 | 0.00 | 70 | 1015.8 |
| 20260903110004 | 78 | 154 | 1.0 | 4.0 | 0.00 | 0.00 | 0.00 | 70 | 1015.8 |
| 20260903105904 | 78 | 153 | 1.0 | 4.0 | 0.00 | 0.00 | 0.00 | 70 | 1015.8 |
| 20260903105704 | 78 | 150 | 2.0 | 4.0 | 0.00 | 0.00 | 0.00 | 70 | 1015.8 |
| 20260903105604 | 78 | 144 | 2.0 | 5.0 | 0.00 | 0.00 | 0.00 | 70 | 1015.8 |
| 20260903105504 | 78 | 143 | 2.0 | 5.0 | 0.00 | 0.00 | 0.00 | 70 | 1015.8 |
| 20260903105404 | 78 | 140 | 2.0 | 5.0 | 0.00 | 0.00 | 0.00 | 70 | 1015.8 |
| 20260903105306 | 78 | 143 | 2.0 | 5.0 | 0.00 | 0.00 | 0.00 | 70 | 1015.7 |
| 20260903105204 | 78 | 143 | 2.0 | 5.0 | 0.00 | 0.00 | 0.00 | 70 | 1015.8 |
| 20260903105004 | 78 | 143 | 2.0 | 5.0 | 0.00 | 0.00 | 0.00 | 70 | 1015.8 |
| 20260903104904 | 78 | 143 | 2.0 | 5.0 | 0.00 | 0.00 | 0.00 | 69 | 1015.8 |
| 20260903104806 | 78 | 145 | 2.0 | 6.0 | 0.00 | 0.00 | 0.00 | 69 | 1015.9 |
| 20260903104604 | 78 | 145 | 2.0 | 6.0 | 0.00 | 0.00 | 0.00 | 69 | 1015.8 |
| 20260903104404 | 78 | 148 | 2.0 | 6.0 | 0.00 | 0.00 | 0.00 | 69 | 1015.9 |
| 20260903104304 | 78 | 148 | 2.0 | 6.0 | 0.00 | 0.00 | 0.00 | 69 | 1015.9 |
| 20260903104204 | 78 | 153 | 2.0 | 6.0 | 0.00 | 0.00 | 0.00 | 69 | 1015.9 |
| 20260903104104 | 78 | 154 | 2.0 | 6.0 | 0.00 | 0.00 | 0.00 | 69 | 1015.9 |
| 20260903104005 | 78 | 154 | 2.0 | 6.0 | 0.00 | 0.00 | 0.00 | 69 | 1015.9 |
| 20260903103904 | 78 | 154 | 2.0 | 6.0 | 0.00 | 0.00 | 0.00 | 69 | 1015.9 |
| 20260903103804 | 78 | 155 | 2.0 | 5.0 | 0.00 | 0.00 | 0.00 | 69 | 1015.9 |
| 20260903103704 | 78 | 152 | 2.0 | 5.0 | 0.00 | 0.00 | 0.00 | 69 | 1015.9 |
| 20260903103604 | 78 | 155 | 2.0 | 5.0 | 0.00 | 0.00 | 0.00 | 69 | 1015.9 |
| 20260903103404 | 78 | 154 | 2.0 | 5.0 | 0.00 | 0.00 | 0.00 | 68 | 1015.9 |
| 20260903103304 | 78 | 151 | 2.0 | 5.0 | 0.00 | 0.00 | 0.00 | 68 | 1015.9 |
| 20260903103204 | 79 | 146 | 2.0 | 5.0 | 0.00 | 0.00 | 0.00 | 68 | 1015.9 |
| 20260903103104 | 79 | 144 | 2.0 | 5.0 | 0.00 | 0.00 | 0.00 | 68 | 1016.0 |
| 20260903102904 | 79 | 147 | 2.0 | 5.0 | 0.00 | 0.00 | 0.00 | 68 | 1016.0 |
| 20260903102804 | 79 | 150 | 2.0 | 8.0 | 0.00 | 0.00 | 0.00 | 68 | 1015.9 |
| 20260903102704 | 79 | 153 | 2.0 | 8.0 | 0.00 | 0.00 | 0.00 | 68 | 1016.0 |
| 20260903102604 | 79 | 151 | 2.0 | 8.0 | 0.00 | 0.00 | 0.00 | 68 | 1015.9 |
| 20260903102404 | 79 | 152 | 2.0 | 8.0 | 0.00 | 0.00 | 0.00 | 67 | 1016.0 |
| 20260903102305 | 79 | 156 | 3.0 | 8.0 | 0.00 | 0.00 | 0.00 | 67 | 1016.0 |
| 20260903102204 | 79 | 155 | 2.0 | 8.0 | 0.00 | 0.00 | 0.00 | 67 | 1015.9 |
| 20260903102104 | 79 | 157 | 2.0 | 8.0 | 0.00 | 0.00 | 0.00 | 67 | 1015.9 |
| 20260903101904 | 79 | 153 | 2.0 | 8.0 | 0.00 | 0.00 | 0.00 | 67 | 1015.9 |
| 20260903101704 | 79 | 155 | 2.0 | 7.0 | 0.00 | 0.00 | 0.00 | 67 | 1015.9 |
| 20260903101604 | 79 | 157 | 2.0 | 7.0 | 0.00 | 0.00 | 0.00 | 67 | 1015.9 |
| 20260903101404 | 79 | 156 | 2.0 | 7.0 | 0.00 | 0.00 | 0.00 | 67 | 1015.9 |
| 20260903101304 | 79 | 153 | 2.0 | 6.0 | 0.00 | 0.00 | 0.00 | 67 | 1015.9 |
| 20260903101204 | 79 | 153 | 2.0 | 6.0 | 0.00 | 0.00 | 0.00 | 67 | 1015.9 |
| 20260903101005 | 79 | 153 | 2.0 | 6.0 | 0.00 | 0.00 | 0.00 | 66 | 1015.9 |
| 20260903100904 | 79 | 158 | 2.0 | 6.0 | 0.00 | 0.00 | 0.00 | 66 | 1016.0 |
| 20260903100805 | 79 | 159 | 2.0 | 6.0 | 0.00 | 0.00 | 0.00 | 66 | 1016.0 |
| 20260903100705 | 79 | 153 | 2.0 | 6.0 | 0.00 | 0.00 | 0.00 | 66 | 1015.9 |
| 20260903100605 | 79 | 153 | 2.0 | 7.0 | 0.00 | 0.00 | 0.00 | 66 | 1016.0 |
| 20260903100505 | 79 | 150 | 2.0 | 7.0 | 0.00 | 0.00 | 0.00 | 66 | 1015.9 |
| 20260903100405 | 79 | 150 | 2.0 | 7.0 | 0.00 | 0.00 | 0.00 | 66 | 1016.0 |
| 20260903100305 | 79 | 150 | 2.0 | 7.0 | 0.00 | 0.00 | 0.00 | 66 | 1015.9 |
| 20260903100104 | 79 | 150 | 2.0 | 7.0 | 0.00 | 0.00 | 0.00 | 66 | 1015.9 |
| 20260903095904 | 80 | 146 | 2.0 | 7.0 | 0.00 | 0.00 | 0.00 | 66 | 1015.9 |
| 20260903095804 | 80 | 152 | 2.0 | 7.0 | 0.00 | 0.00 | 0.00 | 66 | 1015.9 |
| 20260903095704 | 80 | 153 | 2.0 | 7.0 | 0.00 | 0.00 | 0.00 | 66 | 1015.9 |
| 20260903095604 | 80 | 153 | 2.0 | 7.0 | 0.00 | 0.00 | 0.00 | 66 | 1015.9 |
| 20260903095504 | 80 | 156 | 2.0 | 7.0 | 0.00 | 0.00 | 0.00 | 65 | 1015.9 |
| 20260903095404 | 80 | 156 | 2.0 | 7.0 | 0.00 | 0.00 | 0.00 | 65 | 1015.9 |
| 20260903095306 | 80 | 157 | 2.0 | 7.0 | 0.00 | 0.00 | 0.00 | 65 | 1015.9 |
| 20260903095204 | 80 | 158 | 2.0 | 7.0 | 0.00 | 0.00 | 0.00 | 65 | 1016.0 |
| 20260903095104 | 80 | 159 | 2.0 | 7.0 | 0.00 | 0.00 | 0.00 | 65 | 1015.9 |
| 20260903095004 | 80 | 160 | 2.0 | 7.0 | 0.00 | 0.00 | 0.00 | 65 | 1015.9 |
| 20260903094904 | 80 | 158 | 2.0 | 7.0 | 0.00 | 0.00 | 0.00 | 65 | 1015.9 |
| 20260903094804 | 80 | 153 | 2.0 | 7.0 | 0.00 | 0.00 | 0.00 | 65 | 1015.9 |
| 20260903094704 | 80 | 155 | 2.0 | 7.0 | 0.00 | 0.00 | 0.00 | 65 | 1015.9 |
| 20260903094604 | 80 | 155 | 2.0 | 7.0 | 0.00 | 0.00 | 0.00 | 65 | 1015.8 |
| 20260903094504 | 80 | 154 | 2.0 | 6.0 | 0.00 | 0.00 | 0.00 | 65 | 1015.9 |
| 20260903094404 | 80 | 154 | 2.0 | 6.0 | 0.00 | 0.00 | 0.00 | 65 | 1015.8 |
| 20260903094304 | 80 | 155 | 2.0 | 6.0 | 0.00 | 0.00 | 0.00 | 65 | 1015.8 |
| 20260903094204 | 80 | 153 | 2.0 | 6.0 | 0.00 | 0.00 | 0.00 | 64 | 1015.9 |
| 20260903094104 | 80 | 153 | 2.0 | 6.0 | 0.00 | 0.00 | 0.00 | 64 | 1015.9 |
| 20260903094004 | 80 | 159 | 2.0 | 7.0 | 0.00 | 0.00 | 0.00 | 64 | 1015.9 |
| 20260903093904 | 80 | 160 | 2.0 | 7.0 | 0.00 | 0.00 | 0.00 | 64 | 1015.9 |
| 20260903093804 | 80 | 159 | 2.0 | 7.0 | 0.00 | 0.00 | 0.00 | 64 | 1016.0 |
| 20260903093704 | 80 | 158 | 2.0 | 7.0 | 0.00 | 0.00 | 0.00 | 64 | 1015.9 |
| 20260903093604 | 80 | 154 | 2.0 | 7.0 | 0.00 | 0.00 | 0.00 | 64 | 1015.9 |
| 20260903093505 | 80 | 155 | 2.0 | 7.0 | 0.00 | 0.00 | 0.00 | 64 | 1015.9 |
| 20260903093405 | 80 | 154 | 2.0 | 7.0 | 0.00 | 0.00 | 0.00 | 64 | 1016.0 |
| 20260903093305 | 80 | 156 | 2.0 | 7.0 | 0.00 | 0.00 | 0.00 | 64 | 1015.9 |
| 20260903093205 | 80 | 157 | 2.0 | 7.0 | 0.00 | 0.00 | 0.00 | 64 | 1015.9 |
| 20260903093105 | 80 | 157 | 2.0 | 7.0 | 0.00 | 0.00 | 0.00 | 64 | 1015.9 |
| 20260903093005 | 80 | 153 | 2.0 | 7.0 | 0.00 | 0.00 | 0.00 | 64 | 1015.9 |
| 20260903092905 | 80 | 152 | 2.0 | 7.0 | 0.00 | 0.00 | 0.00 | 64 | 1015.9 |
| 20260903092805 | 80 | 153 | 2.0 | 7.0 | 0.00 | 0.00 | 0.00 | 63 | 1015.8 |
| 20260903092705 | 80 | 151 | 2.0 | 7.0 | 0.00 | 0.00 | 0.00 | 63 | 1015.8 |
| 20260903092605 | 80 | 154 | 2.0 | 7.0 | 0.00 | 0.00 | 0.00 | 63 | 1015.9 |
| 20260903092505 | 80 | 152 | 2.0 | 7.0 | 0.00 | 0.00 | 0.00 | 63 | 1015.8 |
| 20260903092405 | 80 | 156 | 2.0 | 7.0 | 0.00 | 0.00 | 0.00 | 63 | 1015.8 |
| 20260903092306 | 80 | 156 | 2.0 | 7.0 | 0.00 | 0.00 | 0.00 | 63 | 1015.8 |
| 20260903092104 | 80 | 158 | 2.0 | 7.0 | 0.00 | 0.00 | 0.00 | 63 | 1015.8 |
| 20260903091904 | 80 | 157 | 2.0 | 6.0 | 0.00 | 0.00 | 0.00 | 63 | 1015.8 |
| 20260903091804 | 80 | 156 | 2.0 | 6.0 | 0.00 | 0.00 | 0.00 | 63 | 1015.8 |
| 20260903091704 | 80 | 156 | 2.0 | 6.0 | 0.00 | 0.00 | 0.00 | 63 | 1015.8 |
| 20260903091604 | 80 | 154 | 2.0 | 6.0 | 0.00 | 0.00 | 0.00 | 63 | 1015.8 |
| 20260903091504 | 80 | 156 | 2.0 | 6.0 | 0.00 | 0.00 | 0.00 | 63 | 1015.8 |
| 20260903091405 | 80 | 153 | 2.0 | 5.0 | 0.00 | 0.00 | 0.00 | 63 | 1015.7 |
| 20260903091305 | 80 | 152 | 2.0 | 6.0 | 0.00 | 0.00 | 0.00 | 63 | 1015.8 |
| 20260903091205 | 80 | 153 | 2.0 | 6.0 | 0.00 | 0.00 | 0.00 | 63 | 1015.8 |
| 20260903091105 | 80 | 150 | 2.0 | 6.0 | 0.00 | 0.00 | 0.00 | 62 | 1015.8 |
| 20260903091005 | 80 | 149 | 2.0 | 6.0 | 0.00 | 0.00 | 0.00 | 62 | 1015.8 |
| 20260903090905 | 80 | 148 | 2.0 | 6.0 | 0.00 | 0.00 | 0.00 | 62 | 1015.8 |
| 20260903090805 | 80 | 148 | 2.0 | 6.0 | 0.00 | 0.00 | 0.00 | 62 | 1015.8 |
| 20260903090705 | 80 | 151 | 2.0 | 7.0 | 0.00 | 0.00 | 0.00 | 62 | 1015.8 |
| 20260903090505 | 80 | 149 | 2.0 | 7.0 | 0.00 | 0.00 | 0.00 | 62 | 1015.8 |
| 20260903090405 | 80 | 148 | 2.0 | 7.0 | 0.00 | 0.00 | 0.00 | 62 | 1015.8 |
| 20260903090305 | 81 | 145 | 2.0 | 7.0 | 0.00 | 0.00 | 0.00 | 62 | 1015.8 |
| 20260903090205 | 81 | 143 | 2.0 | 10.0 | 0.00 | 0.00 | 0.00 | 62 | 1015.8 |
| 20260903090105 | 81 | 145 | 2.0 | 10.0 | 0.00 | 0.00 | 0.00 | 62 | 1015.8 |
| 20260903090005 | 81 | 148 | 2.0 | 10.0 | 0.00 | 0.00 | 0.00 | 62 | 1015.8 |
| 20260903085905 | 80 | 151 | 3.0 | 10.0 | 0.00 | 0.00 | 0.00 | 62 | 1015.8 |
| 20260903085604 | 81 | 149 | 2.0 | 10.0 | 0.00 | 0.00 | 0.00 | 61 | 1015.8 |
| 20260903085504 | 81 | 149 | 2.0 | 10.0 | 0.00 | 0.00 | 0.00 | 61 | 1015.8 |
| 20260903085404 | 81 | 148 | 2.0 | 10.0 | 0.00 | 0.00 | 0.00 | 61 | 1015.8 |
| 20260903085306 | 81 | 152 | 2.0 | 10.0 | 0.00 | 0.00 | 0.00 | 61 | 1015.8 |
| 20260903085204 | 81 | 157 | 2.0 | 10.0 | 0.00 | 0.00 | 0.00 | 61 | 1015.8 |
| 20260903085005 | 81 | 157 | 2.0 | 10.0 | 0.00 | 0.00 | 0.00 | 61 | 1015.8 |
| 20260903084905 | 81 | 156 | 2.0 | 10.0 | 0.00 | 0.00 | 0.00 | 61 | 1015.8 |
| 20260903084805 | 81 | 158 | 2.0 | 10.0 | 0.00 | 0.00 | 0.00 | 61 | 1015.8 |
| 20260903084705 | 81 | 157 | 2.0 | 10.0 | 0.00 | 0.00 | 0.00 | 61 | 1015.8 |
| 20260903084605 | 81 | 155 | 2.0 | 10.0 | 0.00 | 0.00 | 0.00 | 61 | 1015.8 |
| 20260903084404 | 81 | 159 | 2.0 | 10.0 | 0.00 | 0.00 | 0.00 | 61 | 1015.8 |
| 20260903084304 | 81 | 157 | 2.0 | 10.0 | 0.00 | 0.00 | 0.00 | 61 | 1015.8 |
| 20260903084204 | 81 | 151 | 2.0 | 10.0 | 0.00 | 0.00 | 0.00 | 61 | 1015.7 |
| 20260903084104 | 81 | 148 | 2.0 | 6.0 | 0.00 | 0.00 | 0.00 | 61 | 1015.7 |
| 20260903084004 | 81 | 150 | 2.0 | 6.0 | 0.00 | 0.00 | 0.00 | 61 | 1015.7 |
| 20260903083904 | 81 | 151 | 2.0 | 5.0 | 0.00 | 0.00 | 0.00 | 61 | 1015.7 |
| 20260903083804 | 81 | 151 | 2.0 | 5.0 | 0.00 | 0.00 | 0.00 | 61 | 1015.7 |
| 20260903083704 | 81 | 152 | 2.0 | 5.0 | 0.00 | 0.00 | 0.00 | 61 | 1015.7 |
| 20260903083604 | 81 | 157 | 2.0 | 5.0 | 0.00 | 0.00 | 0.00 | 61 | 1015.7 |
| 20260903083504 | 81 | 156 | 2.0 | 5.0 | 0.00 | 0.00 | 0.00 | 61 | 1015.7 |
| 20260903083404 | 81 | 154 | 2.0 | 5.0 | 0.00 | 0.00 | 0.00 | 61 | 1015.7 |
| 20260903083304 | 81 | 152 | 2.0 | 5.0 | 0.00 | 0.00 | 0.00 | 60 | 1015.7 |
| 20260903083205 | 81 | 153 | 2.0 | 5.0 | 0.00 | 0.00 | 0.00 | 60 | 1015.7 |
| 20260903083105 | 81 | 153 | 2.0 | 5.0 | 0.00 | 0.00 | 0.00 | 60 | 1015.7 |
| 20260903083005 | 81 | 153 | 2.0 | 5.0 | 0.00 | 0.00 | 0.00 | 60 | 1015.7 |
| 20260903082905 | 81 | 153 | 2.0 | 5.0 | 0.00 | 0.00 | 0.00 | 60 | 1015.7 |
| 20260903082805 | 81 | 151 | 2.0 | 5.0 | 0.00 | 0.00 | 0.00 | 60 | 1015.7 |
| 20260903082705 | 81 | 151 | 2.0 | 7.0 | 0.00 | 0.00 | 0.00 | 60 | 1015.7 |
| 20260903082605 | 81 | 149 | 2.0 | 7.0 | 0.00 | 0.00 | 0.00 | 60 | 1015.6 |
| 20260903082505 | 81 | 148 | 2.0 | 7.0 | 0.00 | 0.00 | 0.00 | 60 | 1015.6 |
| 20260903082405 | 81 | 152 | 2.0 | 7.0 | 0.00 | 0.00 | 0.00 | 60 | 1015.7 |
| 20260903082204 | 81 | 157 | 2.0 | 7.0 | 0.00 | 0.00 | 0.00 | 60 | 1015.6 |
| 20260903082104 | 81 | 155 | 2.0 | 7.0 | 0.00 | 0.00 | 0.00 | 60 | 1015.6 |
| 20260903082004 | 81 | 153 | 2.0 | 7.0 | 0.00 | 0.00 | 0.00 | 60 | 1015.6 |
| 20260903081904 | 81 | 154 | 2.0 | 7.0 | 0.00 | 0.00 | 0.00 | 60 | 1015.6 |
| 20260903081804 | 81 | 154 | 2.0 | 7.0 | 0.00 | 0.00 | 0.00 | 60 | 1015.6 |
| 20260903081704 | 81 | 154 | 2.0 | 6.0 | 0.00 | 0.00 | 0.00 | 60 | 1015.6 |
| 20260903081505 | 81 | 159 | 2.0 | 6.0 | 0.00 | 0.00 | 0.00 | 60 | 1015.6 |
| 20260903081405 | 81 | 157 | 2.0 | 6.0 | 0.00 | 0.00 | 0.00 | 60 | 1015.6 |
| 20260903081305 | 81 | 158 | 2.0 | 6.0 | 0.00 | 0.00 | 0.00 | 59 | 1015.6 |
| 20260903081205 | 81 | 156 | 2.0 | 6.0 | 0.00 | 0.00 | 0.00 | 59 | 1015.6 |
| 20260903081105 | 81 | 158 | 2.0 | 6.0 | 0.00 | 0.00 | 0.00 | 59 | 1015.5 |
| 20260903081005 | 81 | 159 | 2.0 | 6.0 | 0.00 | 0.00 | 0.00 | 59 | 1015.6 |
| 20260903080804 | 81 | 158 | 2.0 | 6.0 | 0.00 | 0.00 | 0.00 | 59 | 1015.5 |
| 20260903080704 | 81 | 156 | 2.0 | 6.0 | 0.00 | 0.00 | 0.00 | 59 | 1015.6 |
| 20260903080604 | 81 | 156 | 2.0 | 6.0 | 0.00 | 0.00 | 0.00 | 59 | 1015.5 |
| 20260903080504 | 81 | 151 | 2.0 | 6.0 | 0.00 | 0.00 | 0.00 | 59 | 1015.5 |
| 20260903080404 | 81 | 147 | 2.0 | 5.0 | 0.00 | 0.00 | 0.00 | 59 | 1015.5 |
| 20260903080305 | 81 | 146 | 2.0 | 5.0 | 0.00 | 0.00 | 0.00 | 59 | 1015.5 |
| 20260903080204 | 81 | 144 | 2.0 | 5.0 | 0.00 | 0.00 | 0.00 | 59 | 1015.5 |
| 20260903080104 | 81 | 145 | 1.0 | 5.0 | 0.00 | 0.00 | 0.00 | 59 | 1015.6 |
| 20260903075905 | 81 | 143 | 1.0 | 5.0 | 0.00 | 0.00 | 0.00 | 59 | 1015.5 |
| 20260903075805 | 81 | 145 | 1.0 | 5.0 | 0.00 | 0.00 | 0.00 | 59 | 1015.5 |
| 20260903075705 | 81 | 145 | 1.0 | 5.0 | 0.00 | 0.00 | 0.00 | 59 | 1015.5 |
| 20260903075504 | 81 | 145 | 1.0 | 5.0 | 0.00 | 0.00 | 0.00 | 59 | 1015.5 |
| 20260903075404 | 81 | 148 | 1.0 | 5.0 | 0.00 | 0.00 | 0.00 | 59 | 1015.5 |
| 20260903075306 | 81 | 147 | 1.0 | 5.0 | 0.00 | 0.00 | 0.00 | 59 | 1015.6 |
| 20260903075204 | 81 | 148 | 1.0 | 5.0 | 0.00 | 0.00 | 0.00 | 59 | 1015.6 |
| 20260903075104 | 81 | 150 | 2.0 | 7.0 | 0.00 | 0.00 | 0.00 | 59 | 1015.5 |
| 20260903075004 | 81 | 151 | 2.0 | 7.0 | 0.00 | 0.00 | 0.00 | 59 | 1015.5 |
| 20260903074904 | 81 | 153 | 2.0 | 7.0 | 0.00 | 0.00 | 0.00 | 59 | 1015.5 |
| 20260903074804 | 81 | 151 | 1.0 | 7.0 | 0.00 | 0.00 | 0.00 | 59 | 1015.6 |
| 20260903074704 | 81 | 151 | 2.0 | 7.0 | 0.00 | 0.00 | 0.00 | 59 | 1015.5 |
| 20260903074604 | 81 | 153 | 2.0 | 7.0 | 0.00 | 0.00 | 0.00 | 59 | 1015.5 |
| 20260903074505 | 81 | 152 | 2.0 | 7.0 | 0.00 | 0.00 | 0.00 | 59 | 1015.5 |
| 20260903074405 | 81 | 149 | 2.0 | 7.0 | 0.00 | 0.00 | 0.00 | 59 | 1015.5 |
| 20260903074305 | 81 | 152 | 2.0 | 7.0 | 0.00 | 0.00 | 0.00 | 59 | 1015.5 |
| 20260903074205 | 81 | 149 | 2.0 | 7.0 | 0.00 | 0.00 | 0.00 | 59 | 1015.5 |
| 20260903074105 | 81 | 144 | 1.0 | 5.0 | 0.00 | 0.00 | 0.00 | 58 | 1015.5 |
| 20260903074005 | 81 | 144 | 1.0 | 5.0 | 0.00 | 0.00 | 0.00 | 58 | 1015.5 |
| 20260903073905 | 81 | 143 | 2.0 | 5.0 | 0.00 | 0.00 | 0.00 | 58 | 1015.5 |
| 20260903073804 | 81 | 144 | 2.0 | 5.0 | 0.00 | 0.00 | 0.00 | 58 | 1015.4 |
| 20260903073704 | 81 | 143 | 2.0 | 5.0 | 0.00 | 0.00 | 0.00 | 58 | 1015.5 |
| 20260903073604 | 81 | 142 | 2.0 | 5.0 | 0.00 | 0.00 | 0.00 | 58 | 1015.4 |
| 20260903073504 | 81 | 141 | 2.0 | 5.0 | 0.00 | 0.00 | 0.00 | 58 | 1015.4 |
| 20260903073404 | 81 | 142 | 2.0 | 5.0 | 0.00 | 0.00 | 0.00 | 58 | 1015.5 |
| 20260903073304 | 81 | 138 | 1.0 | 4.0 | 0.00 | 0.00 | 0.00 | 58 | 1015.5 |
| 20260903073204 | 81 | 142 | 1.0 | 4.0 | 0.00 | 0.00 | 0.00 | 58 | 1015.5 |
| 20260903073104 | 81 | 144 | 1.0 | 4.0 | 0.00 | 0.00 | 0.00 | 58 | 1015.4 |
| 20260903073004 | 81 | 143 | 1.0 | 4.0 | 0.00 | 0.00 | 0.00 | 58 | 1015.4 |
| 20260903072904 | 81 | 142 | 1.0 | 3.0 | 0.00 | 0.00 | 0.00 | 58 | 1015.4 |
| 20260903072804 | 82 | 139 | 1.0 | 3.0 | 0.00 | 0.00 | 0.00 | 58 | 1015.4 |
| 20260903072704 | 81 | 138 | 1.0 | 3.0 | 0.00 | 0.00 | 0.00 | 58 | 1015.4 |
| 20260903072604 | 81 | 138 | 1.0 | 3.0 | 0.00 | 0.00 | 0.00 | 58 | 1015.4 |
| 20260903072504 | 82 | 138 | 1.0 | 3.0 | 0.00 | 0.00 | 0.00 | 58 | 1015.4 |
| 20260903072404 | 82 | 137 | 1.0 | 3.0 | 0.00 | 0.00 | 0.00 | 58 | 1015.4 |
| 20260903072306 | 82 | 136 | 1.0 | 3.0 | 0.00 | 0.00 | 0.00 | 58 | 1015.4 |
| 20260903072204 | 82 | 136 | 1.0 | 4.0 | 0.00 | 0.00 | 0.00 | 58 | 1015.4 |
| 20260903072104 | 82 | 137 | 1.0 | 4.0 | 0.00 | 0.00 | 0.00 | 58 | 1015.5 |
| 20260903072005 | 82 | 139 | 1.0 | 4.0 | 0.00 | 0.00 | 0.00 | 58 | 1015.5 |
| 20260903071904 | 82 | 140 | 2.0 | 4.0 | 0.00 | 0.00 | 0.00 | 58 | 1015.4 |
| 20260903071805 | 82 | 141 | 2.0 | 4.0 | 0.00 | 0.00 | 0.00 | 58 | 1015.4 |
| 20260903071705 | 82 | 142 | 1.0 | 4.0 | 0.00 | 0.00 | 0.00 | 58 | 1015.4 |
| 20260903071605 | 82 | 142 | 1.0 | 4.0 | 0.00 | 0.00 | 0.00 | 58 | 1015.5 |
| 20260903071505 | 82 | 149 | 2.0 | 5.0 | 0.00 | 0.00 | 0.00 | 58 | 1015.5 |
| 20260903071405 | 82 | 150 | 2.0 | 5.0 | 0.00 | 0.00 | 0.00 | 58 | 1015.5 |
| 20260903071204 | 82 | 154 | 1.0 | 5.0 | 0.00 | 0.00 | 0.00 | 58 | 1015.5 |
| 20260903071004 | 82 | 152 | 1.0 | 5.0 | 0.00 | 0.00 | 0.00 | 58 | 1015.5 |
| 20260903070904 | 82 | 150 | 1.0 | 5.0 | 0.00 | 0.00 | 0.00 | 58 | 1015.5 |
| 20260903070804 | 82 | 149 | 1.0 | 5.0 | 0.00 | 0.00 | 0.00 | 58 | 1015.5 |
| 20260903070704 | 82 | 152 | 1.0 | 5.0 | 0.00 | 0.00 | 0.00 | 58 | 1015.6 |
| 20260903070604 | 82 | 153 | 1.0 | 5.0 | 0.00 | 0.00 | 0.00 | 58 | 1015.6 |
| 20260903070504 | 82 | 148 | 1.0 | 4.0 | 0.00 | 0.00 | 0.00 | 58 | 1015.6 |
| 20260903070404 | 82 | 151 | 1.0 | 4.0 | 0.00 | 0.00 | 0.00 | 58 | 1015.5 |
| 20260903070305 | 82 | 149 | 1.0 | 4.0 | 0.00 | 0.00 | 0.00 | 58 | 1015.5 |
| 20260903070204 | 82 | 148 | 1.0 | 4.0 | 0.00 | 0.00 | 0.00 | 58 | 1015.5 |
| 20260903070105 | 82 | 150 | 1.0 | 4.0 | 0.00 | 0.00 | 0.00 | 58 | 1015.6 |
| 20260903070005 | 82 | 151 | 1.0 | 4.0 | 0.00 | 0.00 | 0.00 | 58 | 1015.6 |
| 20260903065905 | 82 | 153 | 1.0 | 4.0 | 0.00 | 0.00 | 0.00 | 58 | 1015.5 |
| 20260903065805 | 82 | 155 | 1.0 | 4.0 | 0.00 | 0.00 | 0.00 | 58 | 1015.5 |
| 20260903065705 | 82 | 154 | 1.0 | 4.0 | 0.00 | 0.00 | 0.00 | 58 | 1015.5 |
| 20260903065604 | 82 | 153 | 1.0 | 4.0 | 0.00 | 0.00 | 0.00 | 58 | 1015.5 |
| 20260903065505 | 82 | 152 | 1.0 | 4.0 | 0.00 | 0.00 | 0.00 | 58 | 1015.5 |
| 20260903065405 | 82 | 149 | 1.0 | 4.0 | 0.00 | 0.00 | 0.00 | 58 | 1015.5 |
| 20260903065306 | 82 | 152 | 1.0 | 4.0 | 0.00 | 0.00 | 0.00 | 58 | 1015.5 |
| 20260903065204 | 82 | 149 | 1.0 | 4.0 | 0.00 | 0.00 | 0.00 | 58 | 1015.5 |
| 20260903065004 | 82 | 144 | 1.0 | 5.0 | 0.00 | 0.00 | 0.00 | 58 | 1015.5 |
| 20260903064904 | 82 | 140 | 1.0 | 5.0 | 0.00 | 0.00 | 0.00 | 58 | 1015.5 |
| 20260903064804 | 82 | 138 | 1.0 | 5.0 | 0.00 | 0.00 | 0.00 | 57 | 1015.5 |
| 20260903064704 | 82 | 138 | 1.0 | 5.0 | 0.00 | 0.00 | 0.00 | 57 | 1015.5 |
| 20260903064604 | 82 | 138 | 1.0 | 5.0 | 0.00 | 0.00 | 0.00 | 57 | 1015.5 |
| 20260903064504 | 82 | 140 | 1.0 | 5.0 | 0.00 | 0.00 | 0.00 | 57 | 1015.4 |
| 20260903064404 | 82 | 138 | 1.0 | 5.0 | 0.00 | 0.00 | 0.00 | 57 | 1015.4 |
| 20260903064304 | 82 | 135 | 1.0 | 5.0 | 0.00 | 0.00 | 0.00 | 57 | 1015.4 |
| 20260903064204 | 82 | 133 | 2.0 | 5.0 | 0.00 | 0.00 | 0.00 | 57 | 1015.4 |
| 20260903064104 | 82 | 137 | 2.0 | 4.0 | 0.00 | 0.00 | 0.00 | 57 | 1015.4 |
| 20260903064004 | 82 | 137 | 1.0 | 4.0 | 0.00 | 0.00 | 0.00 | 57 | 1015.4 |
| 20260903063704 | 82 | 140 | 2.0 | 4.0 | 0.00 | 0.00 | 0.00 | 57 | 1015.3 |
| 20260903063604 | 82 | 138 | 2.0 | 4.0 | 0.00 | 0.00 | 0.00 | 57 | 1015.3 |
| 20260903063504 | 82 | 137 | 1.0 | 4.0 | 0.00 | 0.00 | 0.00 | 57 | 1015.3 |
| 20260903063305 | 82 | 142 | 2.0 | 4.0 | 0.00 | 0.00 | 0.00 | 57 | 1015.4 |
| 20260903063205 | 82 | 145 | 1.0 | 4.0 | 0.00 | 0.00 | 0.00 | 57 | 1015.4 |
| 20260903063005 | 82 | 142 | 1.0 | 4.0 | 0.00 | 0.00 | 0.00 | 57 | 1015.4 |
| 20260903062904 | 83 | 139 | 1.0 | 4.0 | 0.00 | 0.00 | 0.00 | 56 | 1015.4 |
| 20260903062704 | 83 | 139 | 2.0 | 5.0 | 0.00 | 0.00 | 0.00 | 56 | 1015.4 |
| 20260903062604 | 83 | 139 | 2.0 | 5.0 | 0.00 | 0.00 | 0.00 | 56 | 1015.4 |
| 20260903062504 | 83 | 137 | 2.0 | 5.0 | 0.00 | 0.00 | 0.00 | 56 | 1015.4 |
| 20260903062404 | 83 | 137 | 2.0 | 6.0 | 0.00 | 0.00 | 0.00 | 56 | 1015.4 |
| 20260903062306 | 83 | 136 | 2.0 | 6.0 | 0.00 | 0.00 | 0.00 | 56 | 1015.4 |
| 20260903062104 | 83 | 134 | 2.0 | 6.0 | 0.00 | 0.00 | 0.00 | 56 | 1015.3 |
| 20260903062004 | 83 | 133 | 2.0 | 6.0 | 0.00 | 0.00 | 0.00 | 56 | 1015.4 |
| 20260903061905 | 83 | 134 | 2.0 | 6.0 | 0.00 | 0.00 | 0.00 | 56 | 1015.3 |
| 20260903061805 | 83 | 134 | 2.0 | 6.0 | 0.00 | 0.00 | 0.00 | 56 | 1015.3 |
| 20260903061705 | 83 | 132 | 2.0 | 6.0 | 0.00 | 0.00 | 0.00 | 56 | 1015.3 |
| 20260903061604 | 83 | 132 | 2.0 | 6.0 | 0.00 | 0.00 | 0.00 | 56 | 1015.4 |
| 20260903061504 | 83 | 135 | 2.0 | 6.0 | 0.00 | 0.00 | 0.00 | 56 | 1015.3 |
| 20260903061404 | 83 | 132 | 2.0 | 5.0 | 0.00 | 0.00 | 0.00 | 56 | 1015.3 |
| 20260903061304 | 83 | 132 | 2.0 | 5.0 | 0.00 | 0.00 | 0.00 | 56 | 1015.3 |
| 20260903061204 | 83 | 132 | 2.0 | 5.0 | 0.00 | 0.00 | 0.00 | 56 | 1015.3 |
| 20260903061104 | 83 | 135 | 2.0 | 5.0 | 0.00 | 0.00 | 0.00 | 56 | 1015.2 |
| 20260903061004 | 83 | 138 | 2.0 | 5.0 | 0.00 | 0.00 | 0.00 | 56 | 1015.2 |
| 20260903060904 | 83 | 137 | 2.0 | 5.0 | 0.00 | 0.00 | 0.00 | 56 | 1015.3 |
| 20260903060804 | 83 | 139 | 2.0 | 5.0 | 0.00 | 0.00 | 0.00 | 56 | 1015.2 |
| 20260903060704 | 83 | 141 | 2.0 | 5.0 | 0.00 | 0.00 | 0.00 | 56 | 1015.3 |
| 20260903060604 | 83 | 142 | 2.0 | 5.0 | 0.00 | 0.00 | 0.00 | 56 | 1015.3 |
| 20260903060504 | 83 | 145 | 2.0 | 6.0 | 0.00 | 0.00 | 0.00 | 56 | 1015.3 |
| 20260903060404 | 83 | 145 | 2.0 | 6.0 | 0.00 | 0.00 | 0.00 | 56 | 1015.3 |
| 20260903060005 | 83 | 145 | 2.0 | 6.0 | 0.00 | 0.00 | 0.00 | 56 | 1015.3 |
| 20260903055904 | 83 | 143 | 2.0 | 6.0 | 0.00 | 0.00 | 0.00 | 56 | 1015.3 |
| 20260903055804 | 83 | 143 | 2.0 | 6.0 | 0.00 | 0.00 | 0.00 | 56 | 1015.3 |
| 20260903055704 | 83 | 141 | 2.0 | 6.0 | 0.00 | 0.00 | 0.00 | 56 | 1015.3 |
| 20260903055504 | 83 | 134 | 2.0 | 5.0 | 0.00 | 0.00 | 0.00 | 56 | 1015.2 |
| 20260903055404 | 83 | 136 | 2.0 | 5.0 | 0.00 | 0.00 | 0.00 | 56 | 1015.2 |
| 20260903055306 | 83 | 136 | 2.0 | 5.0 | 0.00 | 0.00 | 0.00 | 56 | 1015.2 |
| 20260903055204 | 83 | 136 | 2.0 | 5.0 | 0.00 | 0.00 | 0.00 | 56 | 1015.2 |
| 20260903055104 | 83 | 134 | 1.0 | 5.0 | 0.00 | 0.00 | 0.00 | 56 | 1015.3 |
| 20260903055004 | 83 | 133 | 1.0 | 5.0 | 0.00 | 0.00 | 0.00 | 56 | 1015.2 |
| 20260903054904 | 83 | 133 | 1.0 | 5.0 | 0.00 | 0.00 | 0.00 | 56 | 1015.2 |
| 20260903054804 | 83 | 132 | 1.0 | 3.0 | 0.00 | 0.00 | 0.00 | 56 | 1015.2 |
| 20260903054704 | 83 | 132 | 1.0 | 3.0 | 0.00 | 0.00 | 0.00 | 55 | 1015.2 |
| 20260903054604 | 83 | 133 | 1.0 | 4.0 | 0.00 | 0.00 | 0.00 | 55 | 1015.2 |
| 20260903054404 | 83 | 135 | 1.0 | 4.0 | 0.00 | 0.00 | 0.00 | 55 | 1015.2 |
| 20260903054304 | 83 | 135 | 1.0 | 4.0 | 0.00 | 0.00 | 0.00 | 55 | 1015.2 |
| 20260903054204 | 83 | 136 | 1.0 | 4.0 | 0.00 | 0.00 | 0.00 | 55 | 1015.3 |
| 20260903054105 | 84 | 136 | 1.0 | 4.0 | 0.00 | 0.00 | 0.00 | 55 | 1015.3 |
| 20260903054005 | 83 | 137 | 1.0 | 4.0 | 0.00 | 0.00 | 0.00 | 55 | 1015.2 |
| 20260903053704 | 84 | 140 | 2.0 | 8.0 | 0.00 | 0.00 | 0.00 | 55 | 1015.2 |
| 20260903053604 | 84 | 139 | 2.0 | 8.0 | 0.00 | 0.00 | 0.00 | 55 | 1015.3 |
| 20260903053504 | 84 | 136 | 2.0 | 8.0 | 0.00 | 0.00 | 0.00 | 55 | 1015.3 |
| 20260903053304 | 84 | 135 | 2.0 | 8.0 | 0.00 | 0.00 | 0.00 | 55 | 1015.3 |
| 20260903053204 | 84 | 133 | 2.0 | 8.0 | 0.00 | 0.00 | 0.00 | 55 | 1015.2 |
| 20260903053104 | 84 | 135 | 2.0 | 8.0 | 0.00 | 0.00 | 0.00 | 55 | 1015.3 |
| 20260903053004 | 84 | 134 | 2.0 | 8.0 | 0.00 | 0.00 | 0.00 | 55 | 1015.3 |
| 20260903052904 | 84 | 136 | 2.0 | 5.0 | 0.00 | 0.00 | 0.00 | 55 | 1015.2 |
| 20260903052705 | 84 | 134 | 2.0 | 7.0 | 0.00 | 0.00 | 0.00 | 55 | 1015.2 |
| 20260903052605 | 84 | 133 | 2.0 | 7.0 | 0.00 | 0.00 | 0.00 | 55 | 1015.2 |
| 20260903052505 | 84 | 134 | 2.0 | 7.0 | 0.00 | 0.00 | 0.00 | 55 | 1015.2 |
| 20260903052405 | 84 | 137 | 1.0 | 7.0 | 0.00 | 0.00 | 0.00 | 55 | 1015.2 |
| 20260903052307 | 84 | 137 | 1.0 | 7.0 | 0.00 | 0.00 | 0.00 | 55 | 1015.2 |
| 20260903052204 | 84 | 138 | 1.0 | 7.0 | 0.00 | 0.00 | 0.00 | 55 | 1015.2 |
| 20260903052104 | 84 | 136 | 1.0 | 7.0 | 0.00 | 0.00 | 0.00 | 55 | 1015.2 |
| 20260903052004 | 84 | 135 | 1.0 | 7.0 | 0.00 | 0.00 | 0.00 | 55 | 1015.2 |
| 20260903051904 | 84 | 136 | 1.0 | 7.0 | 0.00 | 0.00 | 0.00 | 55 | 1015.1 |
| 20260903051804 | 84 | 138 | 1.0 | 7.0 | 0.00 | 0.00 | 0.00 | 55 | 1015.2 |
| 20260903051704 | 84 | 134 | 1.0 | 5.0 | 0.00 | 0.00 | 0.00 | 54 | 1015.2 |
| 20260903051604 | 84 | 136 | 1.0 | 5.0 | 0.00 | 0.00 | 0.00 | 55 | 1015.2 |
| 20260903051504 | 84 | 135 | 1.0 | 5.0 | 0.00 | 0.00 | 0.00 | 54 | 1015.2 |
| 20260903051404 | 84 | 135 | 1.0 | 5.0 | 0.00 | 0.00 | 0.00 | 54 | 1015.2 |
| 20260903051304 | 84 | 135 | 1.0 | 5.0 | 0.00 | 0.00 | 0.00 | 54 | 1015.2 |
| 20260903051204 | 84 | 137 | 1.0 | 5.0 | 0.00 | 0.00 | 0.00 | 54 | 1015.2 |
| 20260903051004 | 84 | 139 | 1.0 | 5.0 | 0.00 | 0.00 | 0.00 | 54 | 1015.3 |
| 20260903050904 | 84 | 139 | 1.0 | 5.0 | 0.00 | 0.00 | 0.00 | 54 | 1015.2 |
| 20260903050804 | 84 | 137 | 1.0 | 5.0 | 0.00 | 0.00 | 0.00 | 54 | 1015.3 |
| 20260903050704 | 84 | 140 | 1.0 | 4.0 | 0.00 | 0.00 | 0.00 | 54 | 1015.3 |
| 20260903050604 | 84 | 141 | 1.0 | 4.0 | 0.00 | 0.00 | 0.00 | 54 | 1015.3 |
| 20260903050504 | 84 | 143 | 1.0 | 3.0 | 0.00 | 0.00 | 0.00 | 54 | 1015.3 |
| 20260903050404 | 84 | 141 | 1.0 | 3.0 | 0.00 | 0.00 | 0.00 | 54 | 1015.3 |
| 20260903050204 | 84 | 138 | 1.0 | 4.0 | 0.00 | 0.00 | 0.00 | 54 | 1015.2 |
| 20260903050104 | 84 | 138 | 1.0 | 4.0 | 0.00 | 0.00 | 0.00 | 54 | 1015.2 |
| 20260903045904 | 84 | 134 | 1.0 | 4.0 | 0.00 | 0.00 | 0.00 | 53 | 1015.2 |
| 20260903045705 | 85 | 136 | 1.0 | 4.0 | 0.00 | 0.00 | 0.00 | 53 | 1015.2 |
| 20260903045504 | 85 | 136 | 1.0 | 4.0 | 0.00 | 0.00 | 0.00 | 53 | 1015.2 |
| 20260903045404 | 85 | 137 | 1.0 | 4.0 | 0.00 | 0.00 | 0.00 | 53 | 1015.2 |
| 20260903045306 | 85 | 141 | 1.0 | 4.0 | 0.00 | 0.00 | 0.00 | 53 | 1015.2 |
| 20260903045204 | 85 | 140 | 1.0 | 4.0 | 0.00 | 0.00 | 0.00 | 53 | 1015.2 |
| 20260903045104 | 85 | 140 | 1.0 | 4.0 | 0.00 | 0.00 | 0.00 | 53 | 1015.2 |
| 20260903045004 | 85 | 141 | 1.0 | 4.0 | 0.00 | 0.00 | 0.00 | 53 | 1015.2 |
| 20260903044904 | 85 | 140 | 1.0 | 4.0 | 0.00 | 0.00 | 0.00 | 53 | 1015.2 |
| 20260903044804 | 85 | 140 | 1.0 | 4.0 | 0.00 | 0.00 | 0.00 | 53 | 1015.2 |
| 20260903044704 | 85 | 136 | 1.0 | 3.0 | 0.00 | 0.00 | 0.00 | 53 | 1015.2 |
| 20260903044604 | 85 | 137 | 1.0 | 3.0 | 0.00 | 0.00 | 0.00 | 53 | 1015.2 |
| 20260903044504 | 85 | 138 | 1.0 | 4.0 | 0.00 | 0.00 | 0.00 | 53 | 1015.2 |
| 20260903044404 | 85 | 138 | 1.0 | 5.0 | 0.00 | 0.00 | 0.00 | 53 | 1015.1 |
| 20260903044304 | 85 | 137 | 1.0 | 5.0 | 0.00 | 0.00 | 0.00 | 53 | 1015.2 |
| 20260903044204 | 85 | 138 | 1.0 | 5.0 | 0.00 | 0.00 | 0.00 | 53 | 1015.2 |
| 20260903044104 | 85 | 136 | 2.0 | 5.0 | 0.00 | 0.00 | 0.00 | 53 | 1015.2 |
| 20260903044004 | 85 | 136 | 2.0 | 5.0 | 0.00 | 0.00 | 0.00 | 53 | 1015.2 |
| 20260903043904 | 85 | 140 | 2.0 | 9.0 | 0.00 | 0.00 | 0.00 | 52 | 1015.2 |
| 20260903043804 | 85 | 141 | 2.0 | 9.0 | 0.00 | 0.00 | 0.00 | 52 | 1015.1 |
| 20260903043604 | 85 | 141 | 2.0 | 9.0 | 0.00 | 0.00 | 0.00 | 52 | 1015.2 |
| 20260903043504 | 85 | 140 | 2.0 | 9.0 | 0.00 | 0.00 | 0.00 | 52 | 1015.2 |
| 20260903043305 | 85 | 141 | 2.0 | 9.0 | 0.00 | 0.00 | 0.00 | 52 | 1015.2 |
| 20260903043205 | 85 | 142 | 2.0 | 9.0 | 0.00 | 0.00 | 0.00 | 52 | 1015.2 |
| 20260903043105 | 85 | 144 | 2.0 | 9.0 | 0.00 | 0.00 | 0.00 | 52 | 1015.2 |
| 20260903043005 | 85 | 144 | 2.0 | 9.0 | 0.00 | 0.00 | 0.00 | 52 | 1015.2 |
| 20260903042805 | 85 | 141 | 1.0 | 4.0 | 0.00 | 0.00 | 0.00 | 52 | 1015.2 |
| 20260903042705 | 85 | 143 | 1.0 | 4.0 | 0.00 | 0.00 | 0.00 | 52 | 1015.3 |
| 20260903042605 | 86 | 142 | 1.0 | 4.0 | 0.00 | 0.00 | 0.00 | 52 | 1015.3 |
| 20260903042505 | 86 | 146 | 1.0 | 4.0 | 0.00 | 0.00 | 0.00 | 52 | 1015.2 |
| 20260903042306 | 86 | 143 | 1.0 | 4.0 | 0.00 | 0.00 | 0.00 | 52 | 1015.2 |
| 20260903042205 | 86 | 142 | 1.0 | 4.0 | 0.00 | 0.00 | 0.00 | 52 | 1015.2 |
| 20260903042105 | 86 | 140 | 1.0 | 4.0 | 0.00 | 0.00 | 0.00 | 51 | 1015.2 |
| 20260903041905 | 86 | 137 | 1.0 | 4.0 | 0.00 | 0.00 | 0.00 | 51 | 1015.2 |
| 20260903041805 | 86 | 132 | 1.0 | 4.0 | 0.00 | 0.00 | 0.00 | 51 | 1015.2 |
| 20260903041705 | 86 | 129 | 1.0 | 4.0 | 0.00 | 0.00 | 0.00 | 51 | 1015.2 |
| 20260903041605 | 86 | 128 | 1.0 | 4.0 | 0.00 | 0.00 | 0.00 | 51 | 1015.2 |
| 20260903041505 | 86 | 125 | 1.0 | 4.0 | 0.00 | 0.00 | 0.00 | 51 | 1015.2 |
| 20260903041404 | 86 | 123 | 1.0 | 4.0 | 0.00 | 0.00 | 0.00 | 51 | 1015.2 |
| 20260903041304 | 86 | 124 | 1.0 | 4.0 | 0.00 | 0.00 | 0.00 | 51 | 1015.1 |
| 20260903041204 | 86 | 126 | 1.0 | 4.0 | 0.00 | 0.00 | 0.00 | 51 | 1015.1 |
| 20260903041104 | 86 | 128 | 1.0 | 4.0 | 0.00 | 0.00 | 0.00 | 51 | 1015.1 |
| 20260903041004 | 86 | 130 | 1.0 | 4.0 | 0.00 | 0.00 | 0.00 | 51 | 1015.1 |
| 20260903040904 | 86 | 130 | 1.0 | 4.0 | 0.00 | 0.00 | 0.00 | 51 | 1015.2 |
| 20260903040804 | 86 | 130 | 1.0 | 4.0 | 0.00 | 0.00 | 0.00 | 50 | 1015.2 |
| 20260903040704 | 86 | 132 | 1.0 | 3.0 | 0.00 | 0.00 | 0.00 | 50 | 1015.2 |
| 20260903040604 | 87 | 132 | 1.0 | 3.0 | 0.00 | 0.00 | 0.00 | 50 | 1015.2 |
| 20260903040504 | 87 | 129 | 1.0 | 3.0 | 0.00 | 0.00 | 0.00 | 50 | 1015.2 |
| 20260903040404 | 87 | 128 | 1.0 | 4.0 | 0.00 | 0.00 | 0.00 | 50 | 1015.2 |
| 20260903040304 | 87 | 125 | 1.0 | 4.0 | 0.00 | 0.00 | 0.00 | 50 | 1015.2 |
| 20260903040204 | 87 | 124 | 1.0 | 4.0 | 0.00 | 0.00 | 0.00 | 50 | 1015.2 |
| 20260903040004 | 87 | 124 | 1.0 | 4.0 | 0.00 | 0.00 | 0.00 | 50 | 1015.2 |
| 20260903035904 | 87 | 123 | 1.0 | 4.0 | 0.00 | 0.00 | 0.00 | 50 | 1015.2 |
| 20260903035804 | 87 | 122 | 1.0 | 4.0 | 0.00 | 0.00 | 0.00 | 50 | 1015.2 |
| 20260903035704 | 87 | 121 | 1.0 | 4.0 | 0.00 | 0.00 | 0.00 | 50 | 1015.2 |
| 20260903035604 | 87 | 123 | 2.0 | 4.0 | 0.00 | 0.00 | 0.00 | 49 | 1015.2 |
| 20260903035504 | 87 | 124 | 2.0 | 4.0 | 0.00 | 0.00 | 0.00 | 49 | 1015.2 |
| 20260903035306 | 87 | 126 | 2.0 | 4.0 | 0.00 | 0.00 | 0.00 | 49 | 1015.2 |
| 20260903035205 | 87 | 127 | 2.0 | 4.0 | 0.00 | 0.00 | 0.00 | 49 | 1015.3 |
| 20260903035105 | 87 | 129 | 2.0 | 5.0 | 0.00 | 0.00 | 0.00 | 49 | 1015.1 |
| 20260903035005 | 87 | 132 | 2.0 | 6.0 | 0.00 | 0.00 | 0.00 | 49 | 1015.2 |
| 20260903034905 | 87 | 135 | 2.0 | 6.0 | 0.00 | 0.00 | 0.00 | 49 | 1015.2 |
| 20260903034805 | 87 | 135 | 2.0 | 6.0 | 0.00 | 0.00 | 0.00 | 49 | 1015.1 |
| 20260903034705 | 87 | 137 | 2.0 | 6.0 | 0.00 | 0.00 | 0.00 | 49 | 1015.1 |
| 20260903034605 | 87 | 135 | 2.0 | 8.0 | 0.00 | 0.00 | 0.00 | 49 | 1015.2 |
| 20260903034505 | 87 | 134 | 2.0 | 8.0 | 0.00 | 0.00 | 0.00 | 49 | 1015.1 |
| 20260903034305 | 87 | 136 | 2.0 | 8.0 | 0.00 | 0.00 | 0.00 | 49 | 1015.1 |
| 20260903034205 | 87 | 136 | 2.0 | 8.0 | 0.00 | 0.00 | 0.00 | 49 | 1015.1 |
| 20260903034104 | 87 | 138 | 2.0 | 8.0 | 0.00 | 0.00 | 0.00 | 49 | 1015.1 |
| 20260903034004 | 87 | 136 | 2.0 | 8.0 | 0.00 | 0.00 | 0.00 | 49 | 1015.1 |
| 20260903033904 | 88 | 138 | 2.0 | 8.0 | 0.00 | 0.00 | 0.00 | 49 | 1015.1 |
| 20260903033804 | 88 | 138 | 2.0 | 8.0 | 0.00 | 0.00 | 0.00 | 49 | 1015.1 |
| 20260903033704 | 88 | 138 | 2.0 | 8.0 | 0.00 | 0.00 | 0.00 | 49 | 1015.0 |
| 20260903033604 | 88 | 138 | 2.0 | 6.0 | 0.00 | 0.00 | 0.00 | 49 | 1015.1 |
| 20260903033504 | 88 | 139 | 1.0 | 6.0 | 0.00 | 0.00 | 0.00 | 49 | 1015.1 |
| 20260903033404 | 88 | 141 | 1.0 | 6.0 | 0.00 | 0.00 | 0.00 | 49 | 1015.1 |
| 20260903033304 | 88 | 139 | 1.0 | 6.0 | 0.00 | 0.00 | 0.00 | 49 | 1015.1 |
| 20260903033204 | 88 | 138 | 1.0 | 6.0 | 0.00 | 0.00 | 0.00 | 49 | 1015.0 |
| 20260903033104 | 88 | 136 | 1.0 | 6.0 | 0.00 | 0.00 | 0.00 | 49 | 1015.0 |
| 20260903033004 | 88 | 134 | 1.0 | 6.0 | 0.00 | 0.00 | 0.00 | 49 | 1015.0 |
| 20260903032904 | 88 | 131 | 1.0 | 3.0 | 0.00 | 0.00 | 0.00 | 49 | 1015.0 |
| 20260903032804 | 88 | 131 | 1.0 | 3.0 | 0.00 | 0.00 | 0.00 | 49 | 1015.0 |
| 20260903032704 | 88 | 131 | 1.0 | 3.0 | 0.00 | 0.00 | 0.00 | 49 | 1015.0 |
| 20260903032405 | 88 | 135 | 1.0 | 4.0 | 0.00 | 0.00 | 0.00 | 49 | 1015.0 |
| 20260903032306 | 88 | 135 | 1.0 | 4.0 | 0.00 | 0.00 | 0.00 | 49 | 1015.0 |
| 20260903032205 | 88 | 135 | 1.0 | 4.0 | 0.00 | 0.00 | 0.00 | 49 | 1015.0 |
| 20260903032105 | 88 | 137 | 2.0 | 5.0 | 0.00 | 0.00 | 0.00 | 49 | 1015.0 |
| 20260903032005 | 88 | 139 | 2.0 | 7.0 | 0.00 | 0.00 | 0.00 | 49 | 1014.9 |
| 20260903031905 | 88 | 140 | 2.0 | 7.0 | 0.00 | 0.00 | 0.00 | 48 | 1015.0 |
| 20260903031804 | 88 | 140 | 2.0 | 7.0 | 0.00 | 0.00 | 0.00 | 48 | 1014.9 |
| 20260903031705 | 88 | 141 | 2.0 | 7.0 | 0.00 | 0.00 | 0.00 | 48 | 1014.9 |
| 20260903031605 | 88 | 141 | 2.0 | 7.0 | 0.00 | 0.00 | 0.00 | 48 | 1014.9 |
| 20260903031505 | 88 | 140 | 2.0 | 7.0 | 0.00 | 0.00 | 0.00 | 48 | 1014.9 |
| 20260903031404 | 88 | 138 | 2.0 | 7.0 | 0.00 | 0.00 | 0.00 | 48 | 1014.9 |
| 20260903031304 | 88 | 138 | 2.0 | 7.0 | 0.00 | 0.00 | 0.00 | 48 | 1014.9 |
| 20260903031204 | 88 | 139 | 1.0 | 7.0 | 0.00 | 0.00 | 0.00 | 48 | 1014.8 |
| 20260903031104 | 88 | 137 | 1.0 | 7.0 | 0.00 | 0.00 | 0.00 | 48 | 1014.9 |
| 20260903031005 | 88 | 132 | 1.0 | 4.0 | 0.00 | 0.00 | 0.00 | 48 | 1014.8 |
| 20260903030904 | 88 | 132 | 1.0 | 4.0 | 0.00 | 0.00 | 0.00 | 48 | 1014.8 |
| 20260903030804 | 88 | 133 | 1.0 | 4.0 | 0.00 | 0.00 | 0.00 | 48 | 1014.8 |
| 20260903030704 | 88 | 134 | 1.0 | 4.0 | 0.00 | 0.00 | 0.00 | 48 | 1014.8 |
| 20260903030604 | 88 | 132 | 1.0 | 3.0 | 0.00 | 0.00 | 0.00 | 48 | 1014.8 |
| 20260903030504 | 88 | 131 | 1.0 | 3.0 | 0.00 | 0.00 | 0.00 | 48 | 1014.8 |
| 20260903030304 | 88 | 134 | 1.0 | 5.0 | 0.00 | 0.00 | 0.00 | 48 | 1014.8 |
| 20260903030204 | 88 | 136 | 1.0 | 5.0 | 0.00 | 0.00 | 0.00 | 48 | 1014.8 |
| 20260903030104 | 88 | 136 | 1.0 | 5.0 | 0.00 | 0.00 | 0.00 | 48 | 1014.8 |
| 20260903030004 | 88 | 136 | 1.0 | 5.0 | 0.00 | 0.00 | 0.00 | 48 | 1014.8 |
| 20260903025904 | 88 | 137 | 1.0 | 5.0 | 0.00 | 0.00 | 0.00 | 48 | 1014.8 |
| 20260903025804 | 88 | 140 | 1.0 | 5.0 | 0.00 | 0.00 | 0.00 | 48 | 1014.8 |
| 20260903025704 | 88 | 140 | 1.0 | 5.0 | 0.00 | 0.00 | 0.00 | 48 | 1014.8 |
| 20260903025604 | 88 | 141 | 2.0 | 5.0 | 0.00 | 0.00 | 0.00 | 48 | 1014.8 |
| 20260903025504 | 88 | 145 | 2.0 | 5.0 | 0.00 | 0.00 | 0.00 | 48 | 1014.8 |
| 20260903025404 | 88 | 143 | 1.0 | 5.0 | 0.00 | 0.00 | 0.00 | 48 | 1014.8 |
| 20260903025306 | 89 | 144 | 2.0 | 5.0 | 0.00 | 0.00 | 0.00 | 48 | 1014.8 |
| 20260903025204 | 89 | 144 | 2.0 | 5.0 | 0.00 | 0.00 | 0.00 | 48 | 1014.8 |
| 20260903025104 | 89 | 143 | 2.0 | 5.0 | 0.00 | 0.00 | 0.00 | 48 | 1014.8 |
| 20260903025004 | 89 | 141 | 2.0 | 5.0 | 0.00 | 0.00 | 0.00 | 48 | 1014.8 |
| 20260903024904 | 89 | 139 | 2.0 | 6.0 | 0.00 | 0.00 | 0.00 | 48 | 1014.8 |
| 20260903024804 | 89 | 138 | 2.0 | 6.0 | 0.00 | 0.00 | 0.00 | 47 | 1014.8 |
| 20260903024704 | 89 | 136 | 2.0 | 6.0 | 0.00 | 0.00 | 0.00 | 48 | 1014.7 |
| 20260903024604 | 89 | 135 | 2.0 | 6.0 | 0.00 | 0.00 | 0.00 | 47 | 1014.8 |
| 20260903024404 | 89 | 134 | 2.0 | 6.0 | 0.00 | 0.00 | 0.00 | 47 | 1014.7 |
| 20260903024304 | 89 | 132 | 2.0 | 6.0 | 0.00 | 0.00 | 0.00 | 47 | 1014.7 |
| 20260903024104 | 89 | 130 | 2.0 | 6.0 | 0.00 | 0.00 | 0.00 | 47 | 1014.7 |
| 20260903024004 | 89 | 132 | 2.0 | 6.0 | 0.00 | 0.00 | 0.00 | 47 | 1014.7 |
| 20260903023904 | 89 | 133 | 2.0 | 5.0 | 0.00 | 0.00 | 0.00 | 47 | 1014.7 |
| 20260903023804 | 89 | 130 | 2.0 | 5.0 | 0.00 | 0.00 | 0.00 | 47 | 1014.7 |
| 20260903023704 | 89 | 130 | 2.0 | 5.0 | 0.00 | 0.00 | 0.00 | 47 | 1014.7 |
| 20260903023404 | 89 | 129 | 1.0 | 3.0 | 0.00 | 0.00 | 0.00 | 47 | 1014.6 |
| 20260903023304 | 89 | 129 | 1.0 | 3.0 | 0.00 | 0.00 | 0.00 | 47 | 1014.6 |
| 20260903023204 | 89 | 128 | 1.0 | 3.0 | 0.00 | 0.00 | 0.00 | 47 | 1014.6 |
| 20260903022904 | 89 | 126 | 1.0 | 4.0 | 0.00 | 0.00 | 0.00 | 47 | 1014.6 |
| 20260903022804 | 89 | 128 | 1.0 | 4.0 | 0.00 | 0.00 | 0.00 | 47 | 1014.5 |
| 20260903022704 | 89 | 129 | 1.0 | 4.0 | 0.00 | 0.00 | 0.00 | 47 | 1014.5 |
| 20260903022404 | 89 | 126 | 1.0 | 5.0 | 0.00 | 0.00 | 0.00 | 47 | 1014.6 |
| 20260903022306 | 89 | 126 | 1.0 | 5.0 | 0.00 | 0.00 | 0.00 | 47 | 1014.6 |
| 20260903022204 | 89 | 126 | 1.0 | 7.0 | 0.00 | 0.00 | 0.00 | 47 | 1014.5 |
| 20260903022104 | 89 | 126 | 1.0 | 7.0 | 0.00 | 0.00 | 0.00 | 47 | 1014.5 |
| 20260903022004 | 89 | 128 | 1.0 | 7.0 | 0.00 | 0.00 | 0.00 | 47 | 1014.5 |
| 20260903021904 | 89 | 128 | 1.0 | 7.0 | 0.00 | 0.00 | 0.00 | 47 | 1014.5 |
| 20260903021804 | 90 | 126 | 1.0 | 7.0 | 0.00 | 0.00 | 0.00 | 47 | 1014.5 |
| 20260903021704 | 90 | 125 | 1.0 | 7.0 | 0.00 | 0.00 | 0.00 | 47 | 1014.5 |
| 20260903021604 | 90 | 125 | 1.0 | 7.0 | 0.00 | 0.00 | 0.00 | 47 | 1014.5 |
| 20260903021504 | 90 | 127 | 1.0 | 7.0 | 0.00 | 0.00 | 0.00 | 47 | 1014.4 |
| 20260903021404 | 90 | 128 | 1.0 | 7.0 | 0.00 | 0.00 | 0.00 | 47 | 1014.4 |
| 20260903021304 | 90 | 128 | 1.0 | 7.0 | 0.00 | 0.00 | 0.00 | 47 | 1014.4 |
| 20260903021204 | 90 | 128 | 1.0 | 6.0 | 0.00 | 0.00 | 0.00 | 47 | 1014.4 |
| 20260903021104 | 90 | 128 | 1.0 | 5.0 | 0.00 | 0.00 | 0.00 | 47 | 1014.4 |
| 20260903021005 | 90 | 127 | 1.0 | 5.0 | 0.00 | 0.00 | 0.00 | 47 | 1014.4 |
| 20260903020905 | 90 | 128 | 1.0 | 5.0 | 0.00 | 0.00 | 0.00 | 47 | 1014.4 |
| 20260903020805 | 90 | 126 | 1.0 | 6.0 | 0.00 | 0.00 | 0.00 | 47 | 1014.4 |
| 20260903020504 | 90 | 126 | 1.0 | 6.0 | 0.00 | 0.00 | 0.00 | 46 | 1014.3 |
| 20260903020404 | 90 | 124 | 1.0 | 6.0 | 0.00 | 0.00 | 0.00 | 46 | 1014.4 |
| 20260903020304 | 90 | 125 | 1.0 | 6.0 | 0.00 | 0.00 | 0.00 | 46 | 1014.4 |
| 20260903020204 | 90 | 125 | 1.0 | 6.0 | 0.00 | 0.00 | 0.00 | 46 | 1014.4 |
| 20260903020104 | 90 | 127 | 1.0 | 6.0 | 0.00 | 0.00 | 0.00 | 46 | 1014.4 |
| 20260903020005 | 90 | 127 | 1.0 | 6.0 | 0.00 | 0.00 | 0.00 | 46 | 1014.3 |
| 20260903015904 | 90 | 127 | 1.0 | 6.0 | 0.00 | 0.00 | 0.00 | 46 | 1014.4 |
| 20260903015804 | 90 | 129 | 1.0 | 4.0 | 0.00 | 0.00 | 0.00 | 46 | 1014.4 |
| 20260903015704 | 90 | 127 | 1.0 | 6.0 | 0.00 | 0.00 | 0.00 | 46 | 1014.3 |
| 20260903015504 | 91 | 133 | 1.0 | 7.0 | 0.00 | 0.00 | 0.00 | 46 | 1014.3 |
| 20260903015306 | 91 | 132 | 2.0 | 7.0 | 0.00 | 0.00 | 0.00 | 45 | 1014.3 |
| 20260903015204 | 91 | 134 | 2.0 | 7.0 | 0.00 | 0.00 | 0.00 | 46 | 1014.2 |
| 20260903015104 | 91 | 133 | 2.0 | 7.0 | 0.00 | 0.00 | 0.00 | 46 | 1014.2 |
| 20260903015004 | 91 | 133 | 2.0 | 7.0 | 0.00 | 0.00 | 0.00 | 45 | 1014.2 |
| 20260903014804 | 91 | 137 | 2.0 | 7.0 | 0.00 | 0.00 | 0.00 | 45 | 1014.2 |
| 20260903014604 | 91 | 138 | 2.0 | 6.0 | 0.00 | 0.00 | 0.00 | 45 | 1014.2 |
| 20260903014504 | 91 | 137 | 2.0 | 6.0 | 0.00 | 0.00 | 0.00 | 45 | 1014.2 |
| 20260903014304 | 91 | 140 | 2.0 | 6.0 | 0.00 | 0.00 | 0.00 | 45 | 1014.2 |
| 20260903014204 | 91 | 136 | 2.0 | 6.0 | 0.00 | 0.00 | 0.00 | 45 | 1014.2 |
| 20260903014004 | 91 | 135 | 2.0 | 6.0 | 0.00 | 0.00 | 0.00 | 45 | 1014.1 |
| 20260903013904 | 91 | 133 | 2.0 | 5.0 | 0.00 | 0.00 | 0.00 | 45 | 1014.1 |
| 20260903013804 | 91 | 131 | 1.0 | 5.0 | 0.00 | 0.00 | 0.00 | 45 | 1014.1 |
| 20260903013705 | 91 | 130 | 1.0 | 5.0 | 0.00 | 0.00 | 0.00 | 45 | 1014.0 |
| 20260903013605 | 91 | 131 | 1.0 | 4.0 | 0.00 | 0.00 | 0.00 | 45 | 1014.0 |
| 20260903013505 | 92 | 130 | 2.0 | 4.0 | 0.00 | 0.00 | 0.00 | 45 | 1014.0 |
| 20260903013405 | 92 | 128 | 2.0 | 7.0 | 0.00 | 0.00 | 0.00 | 45 | 1014.0 |
| 20260903013305 | 92 | 128 | 1.0 | 7.0 | 0.00 | 0.00 | 0.00 | 45 | 1014.0 |
| 20260903013205 | 92 | 131 | 1.0 | 7.0 | 0.00 | 0.00 | 0.00 | 45 | 1014.0 |
| 20260903013105 | 92 | 131 | 2.0 | 7.0 | 0.00 | 0.00 | 0.00 | 45 | 1014.1 |
| 20260903012905 | 92 | 135 | 2.0 | 7.0 | 0.00 | 0.00 | 0.00 | 45 | 1014.0 |
| 20260903012805 | 92 | 134 | 2.0 | 7.0 | 0.00 | 0.00 | 0.00 | 45 | 1014.0 |
| 20260903012705 | 92 | 134 | 2.0 | 7.0 | 0.00 | 0.00 | 0.00 | 44 | 1014.0 |
| 20260903012605 | 92 | 135 | 2.0 | 7.0 | 0.00 | 0.00 | 0.00 | 44 | 1014.0 |
| 20260903012505 | 92 | 135 | 2.0 | 7.0 | 0.00 | 0.00 | 0.00 | 44 | 1014.0 |
| 20260903012405 | 92 | 138 | 2.0 | 7.0 | 0.00 | 0.00 | 0.00 | 44 | 1014.0 |
| 20260903012306 | 92 | 138 | 2.0 | 7.0 | 0.00 | 0.00 | 0.00 | 44 | 1014.0 |
| 20260903012204 | 92 | 135 | 2.0 | 7.0 | 0.00 | 0.00 | 0.00 | 44 | 1014.0 |
| 20260903012104 | 92 | 136 | 2.0 | 7.0 | 0.00 | 0.00 | 0.00 | 44 | 1014.0 |
| 20260903011904 | 92 | 134 | 2.0 | 7.0 | 0.00 | 0.00 | 0.00 | 44 | 1013.9 |
| 20260903011804 | 92 | 135 | 2.0 | 7.0 | 0.00 | 0.00 | 0.00 | 44 | 1014.0 |
| 20260903011704 | 92 | 135 | 2.0 | 7.0 | 0.00 | 0.00 | 0.00 | 44 | 1013.9 |
| 20260903011604 | 92 | 133 | 2.0 | 7.0 | 0.00 | 0.00 | 0.00 | 44 | 1014.0 |
| 20260903011504 | 92 | 133 | 2.0 | 7.0 | 0.00 | 0.00 | 0.00 | 44 | 1013.9 |
| 20260903011404 | 92 | 130 | 2.0 | 4.0 | 0.00 | 0.00 | 0.00 | 43 | 1013.9 |
| 20260903011304 | 92 | 132 | 1.0 | 4.0 | 0.00 | 0.00 | 0.00 | 43 | 1013.9 |
| 20260903011204 | 93 | 135 | 1.0 | 5.0 | 0.00 | 0.00 | 0.00 | 43 | 1014.0 |
| 20260903011004 | 93 | 135 | 1.0 | 5.0 | 0.00 | 0.00 | 0.00 | 43 | 1013.9 |
| 20260903010904 | 93 | 134 | 1.0 | 5.0 | 0.00 | 0.00 | 0.00 | 43 | 1013.9 |
| 20260903010805 | 93 | 133 | 1.0 | 5.0 | 0.00 | 0.00 | 0.00 | 43 | 1013.9 |
| 20260903010712 | 93 | 135 | 1.0 | 5.0 | 0.00 | 0.00 | 0.00 | 43 | 1013.9 |
| 20260903010522 | 93 | 130 | 1.0 | 5.0 | 0.00 | 0.00 | 0.00 | 43 | 1013.9 |
| 20260903010104 | 93 | 128 | 2.0 | 4.0 | 0.00 | 0.00 | 0.00 | 42 | 1013.9 |
| 20260903005904 | 94 | 129 | 2.0 | 6.0 | 0.00 | 0.00 | 0.00 | 42 | 1013.9 |
| 20260903005804 | 94 | 130 | 2.0 | 7.0 | 0.00 | 0.00 | 0.00 | 42 | 1013.9 |
| 20260903005704 | 94 | 128 | 2.0 | 7.0 | 0.00 | 0.00 | 0.00 | 42 | 1013.9 |
| 20260903005504 | 94 | 132 | 2.0 | 7.0 | 0.00 | 0.00 | 0.00 | 42 | 1014.0 |
| 20260903005404 | 94 | 131 | 2.0 | 7.0 | 0.00 | 0.00 | 0.00 | 41 | 1013.9 |
| 20260903005204 | 94 | 133 | 2.0 | 7.0 | 0.00 | 0.00 | 0.00 | 41 | 1014.0 |
| 20260903005104 | 94 | 132 | 2.0 | 7.0 | 0.00 | 0.00 | 0.00 | 41 | 1013.9 |
| 20260903005005 | 94 | 132 | 2.0 | 7.0 | 0.00 | 0.00 | 0.00 | 41 | 1014.0 |
| 20260903004805 | 94 | 129 | 2.0 | 7.0 | 0.00 | 0.00 | 0.00 | 41 | 1013.9 |
| 20260903004605 | 94 | 130 | 3.0 | 7.0 | 0.00 | 0.00 | 0.00 | 41 | 1013.9 |
| 20260903004505 | 94 | 128 | 3.0 | 7.0 | 0.00 | 0.00 | 0.00 | 41 | 1013.9 |
| 20260903004404 | 94 | 128 | 3.0 | 7.0 | 0.00 | 0.00 | 0.00 | 41 | 1013.9 |
| 20260903004204 | 94 | 128 | 3.0 | 7.0 | 0.00 | 0.00 | 0.00 | 41 | 1013.8 |
| 20260903004004 | 95 | 127 | 3.0 | 7.0 | 0.00 | 0.00 | 0.00 | 41 | 1013.8 |
| 20260903003905 | 95 | 128 | 3.0 | 8.0 | 0.00 | 0.00 | 0.00 | 41 | 1013.8 |
| 20260903003805 | 95 | 129 | 3.0 | 8.0 | 0.00 | 0.00 | 0.00 | 41 | 1013.9 |
| 20260903003705 | 95 | 127 | 3.0 | 8.0 | 0.00 | 0.00 | 0.00 | 40 | 1013.9 |
| 20260903003605 | 95 | 126 | 3.0 | 8.0 | 0.00 | 0.00 | 0.00 | 40 | 1013.9 |
| 20260903003505 | 95 | 127 | 3.0 | 8.0 | 0.00 | 0.00 | 0.00 | 40 | 1013.9 |
| 20260903003405 | 95 | 130 | 3.0 | 8.0 | 0.00 | 0.00 | 0.00 | 40 | 1013.9 |
| 20260903003104 | 95 | 136 | 3.0 | 9.0 | 0.00 | 0.00 | 0.00 | 40 | 1013.9 |
| 20260903002904 | 95 | 135 | 3.0 | 9.0 | 0.00 | 0.00 | 0.00 | 40 | 1013.9 |
| 20260903002804 | 95 | 136 | 3.0 | 9.0 | 0.00 | 0.00 | 0.00 | 40 | 1013.9 |
| 20260903002704 | 95 | 137 | 3.0 | 9.0 | 0.00 | 0.00 | 0.00 | 40 | 1013.8 |
| 20260903002604 | 95 | 141 | 3.0 | 9.0 | 0.00 | 0.00 | 0.00 | 39 | 1013.9 |
| 20260903002504 | 95 | 141 | 3.0 | 9.0 | 0.00 | 0.00 | 0.00 | 39 | 1013.9 |
| 20260903002404 | 95 | 141 | 3.0 | 9.0 | 0.00 | 0.00 | 0.00 | 39 | 1013.9 |
| 20260903002306 | 96 | 140 | 3.0 | 9.0 | 0.00 | 0.00 | 0.00 | 39 | 1013.9 |
| 20260903002204 | 96 | 140 | 3.0 | 9.0 | 0.00 | 0.00 | 0.00 | 39 | 1013.9 |
| 20260903002104 | 96 | 138 | 3.0 | 8.0 | 0.00 | 0.00 | 0.00 | 39 | 1013.9 |
| 20260903002004 | 96 | 138 | 3.0 | 8.0 | 0.00 | 0.00 | 0.00 | 39 | 1013.8 |
| 20260903001904 | 96 | 140 | 3.0 | 8.0 | 0.00 | 0.00 | 0.00 | 39 | 1013.9 |
| 20260903001804 | 96 | 139 | 3.0 | 8.0 | 0.00 | 0.00 | 0.00 | 39 | 1013.9 |
| 20260903001704 | 96 | 140 | 3.0 | 8.0 | 0.00 | 0.00 | 0.00 | 39 | 1013.9 |
| 20260903001604 | 96 | 138 | 3.0 | 8.0 | 0.00 | 0.00 | 0.00 | 39 | 1013.8 |
| 20260903001504 | 96 | 139 | 4.0 | 8.0 | 0.00 | 0.00 | 0.00 | 39 | 1013.9 |
| 20260903001404 | 96 | 140 | 4.0 | 8.0 | 0.00 | 0.00 | 0.00 | 39 | 1013.9 |
| 20260903001304 | 96 | 140 | 4.0 | 8.0 | 0.00 | 0.00 | 0.00 | 39 | 1013.8 |
| 20260903001204 | 96 | 140 | 4.0 | 8.0 | 0.00 | 0.00 | 0.00 | 38 | 1013.9 |
| 20260903001104 | 96 | 140 | 4.0 | 8.0 | 0.00 | 0.00 | 0.00 | 39 | 1013.8 |
| 20260903001004 | 96 | 139 | 4.0 | 9.0 | 0.00 | 0.00 | 0.00 | 39 | 1013.9 |
| 20260903000904 | 96 | 139 | 4.0 | 9.0 | 0.00 | 0.00 | 0.00 | 38 | 1013.9 |
| 20260903000804 | 96 | 139 | 4.0 | 9.0 | 0.00 | 0.00 | 0.00 | 38 | 1013.9 |
| 20260903000704 | 96 | 138 | 4.0 | 9.0 | 0.00 | 0.00 | 0.00 | 38 | 1013.9 |
| 20260903000604 | 96 | 136 | 4.0 | 9.0 | 0.00 | 0.00 | 0.00 | 38 | 1013.9 |
| 20260903000504 | 96 | 134 | 4.0 | 9.0 | 0.00 | 0.00 | 0.00 | 38 | 1013.9 |
| 20260903000404 | 97 | 132 | 4.0 | 9.0 | 0.00 | 0.00 | 0.00 | 38 | 1013.9 |
| 20260903000304 | 97 | 132 | 4.0 | 9.0 | 0.00 | 0.00 | 0.00 | 38 | 1013.9 |
| 20260903000104 | 97 | 130 | 4.0 | 9.0 | 0.00 | 0.00 | 0.00 | 37 | 1013.9 |
| 20260902235904 | 97 | 134 | 3.0 | 12.0 | 0.00 | 0.00 | 0.00 | 37 | 1013.9 |
| 20260902235704 | 97 | 136 | 3.0 | 12.0 | 0.00 | 0.00 | 0.00 | 37 | 1013.9 |
| 20260902235604 | 97 | 141 | 3.0 | 12.0 | 0.00 | 0.00 | 0.00 | 37 | 1013.9 |
| 20260902235504 | 97 | 142 | 3.0 | 12.0 | 0.00 | 0.00 | 0.00 | 36 | 1013.9 |
| 20260902235306 | 97 | 140 | 3.0 | 12.0 | 0.00 | 0.00 | 0.00 | 36 | 1013.9 |
| 20260902235104 | 97 | 141 | 3.0 | 12.0 | 0.00 | 0.00 | 0.00 | 36 | 1013.9 |
| 20260902235004 | 97 | 138 | 4.0 | 8.0 | 0.00 | 0.00 | 0.00 | 36 | 1013.9 |
| 20260902234904 | 97 | 140 | 4.0 | 13.0 | 0.00 | 0.00 | 0.00 | 36 | 1013.9 |
| 20260902234804 | 98 | 141 | 4.0 | 13.0 | 0.00 | 0.00 | 0.00 | 36 | 1013.9 |
| 20260902234704 | 97 | 138 | 3.0 | 13.0 | 0.00 | 0.00 | 0.00 | 36 | 1013.9 |
| 20260902234504 | 98 | 132 | 3.0 | 13.0 | 0.00 | 0.00 | 0.00 | 36 | 1013.9 |
| 20260902234404 | 98 | 132 | 3.0 | 13.0 | 0.00 | 0.00 | 0.00 | 36 | 1013.9 |
| 20260902234204 | 98 | 139 | 4.0 | 13.0 | 0.00 | 0.00 | 0.00 | 36 | 1014.0 |
| 20260902234104 | 98 | 143 | 4.0 | 13.0 | 0.00 | 0.00 | 0.00 | 35 | 1013.9 |
| 20260902234004 | 98 | 143 | 3.0 | 13.0 | 0.00 | 0.00 | 0.00 | 35 | 1013.9 |
| 20260902233904 | 98 | 139 | 3.0 | 12.0 | 0.00 | 0.00 | 0.00 | 35 | 1013.9 |
| 20260902233804 | 98 | 138 | 3.0 | 12.0 | 0.00 | 0.00 | 0.00 | 36 | 1014.0 |
| 20260902233704 | 98 | 137 | 4.0 | 12.0 | 0.00 | 0.00 | 0.00 | 35 | 1014.0 |
| 20260902233604 | 98 | 137 | 4.0 | 12.0 | 0.00 | 0.00 | 0.00 | 35 | 1014.0 |
| 20260902233504 | 98 | 138 | 3.0 | 12.0 | 0.00 | 0.00 | 0.00 | 35 | 1013.9 |
| 20260902233404 | 98 | 139 | 3.0 | 12.0 | 0.00 | 0.00 | 0.00 | 35 | 1013.9 |
| 20260902233304 | 98 | 135 | 3.0 | 12.0 | 0.00 | 0.00 | 0.00 | 36 | 1013.9 |
| 20260902233004 | 98 | 133 | 3.0 | 8.0 | 0.00 | 0.00 | 0.00 | 35 | 1013.9 |
| 20260902232904 | 98 | 134 | 4.0 | 8.0 | 0.00 | 0.00 | 0.00 | 35 | 1013.9 |
| 20260902232804 | 98 | 143 | 4.0 | 13.0 | 0.00 | 0.00 | 0.00 | 35 | 1013.9 |
| 20260902232704 | 98 | 147 | 4.0 | 13.0 | 0.00 | 0.00 | 0.00 | 35 | 1014.0 |
| 20260902232306 | 98 | 148 | 4.0 | 13.0 | 0.00 | 0.00 | 0.00 | 35 | 1013.9 |
| 20260902232204 | 98 | 146 | 4.0 | 13.0 | 0.00 | 0.00 | 0.00 | 35 | 1013.9 |
| 20260902232104 | 98 | 144 | 4.0 | 13.0 | 0.00 | 0.00 | 0.00 | 34 | 1014.0 |
| 20260902232004 | 98 | 140 | 4.0 | 13.0 | 0.00 | 0.00 | 0.00 | 34 | 1014.0 |
| 20260902231904 | 98 | 140 | 5.0 | 13.0 | 0.00 | 0.00 | 0.00 | 34 | 1013.9 |
| 20260902231804 | 98 | 135 | 4.0 | 12.0 | 0.00 | 0.00 | 0.00 | 34 | 1013.9 |
| 20260902231704 | 98 | 134 | 4.0 | 12.0 | 0.00 | 0.00 | 0.00 | 34 | 1013.9 |
| 20260902231604 | 98 | 136 | 4.0 | 12.0 | 0.00 | 0.00 | 0.00 | 34 | 1013.9 |
| 20260902231404 | 98 | 147 | 5.0 | 14.0 | 0.00 | 0.00 | 0.00 | 34 | 1013.9 |
| 20260902231304 | 98 | 154 | 5.0 | 14.0 | 0.00 | 0.00 | 0.00 | 34 | 1014.0 |
| 20260902231204 | 98 | 156 | 5.0 | 14.0 | 0.00 | 0.00 | 0.00 | 34 | 1014.0 |
| 20260902231104 | 99 | 160 | 5.0 | 14.0 | 0.00 | 0.00 | 0.00 | 34 | 1013.9 |
| 20260902230904 | 99 | 168 | 5.0 | 14.0 | 0.00 | 0.00 | 0.00 | 34 | 1014.0 |
| 20260902230804 | 99 | 166 | 5.0 | 14.0 | 0.00 | 0.00 | 0.00 | 34 | 1013.9 |
| 20260902230704 | 99 | 167 | 5.0 | 14.0 | 0.00 | 0.00 | 0.00 | 34 | 1013.9 |
| 20260902230404 | 99 | 154 | 4.0 | 12.0 | 0.00 | 0.00 | 0.00 | 33 | 1013.9 |
| 20260902230304 | 99 | 144 | 4.0 | 10.0 | 0.00 | 0.00 | 0.00 | 33 | 1013.9 |
| 20260902230204 | 99 | 142 | 4.0 | 10.0 | 0.00 | 0.00 | 0.00 | 33 | 1013.9 |
| 20260902230104 | 99 | 144 | 4.0 | 10.0 | 0.00 | 0.00 | 0.00 | 33 | 1013.9 |
| 20260902230005 | 99 | 147 | 4.0 | 10.0 | 0.00 | 0.00 | 0.00 | 33 | 1013.9 |
| 20260902225904 | 99 | 148 | 4.0 | 10.0 | 0.00 | 0.00 | 0.00 | 33 | 1013.9 |
| 20260902225805 | 99 | 148 | 4.0 | 10.0 | 0.00 | 0.00 | 0.00 | 33 | 1013.9 |
| 20260902225604 | 99 | 143 | 4.0 | 13.0 | 0.00 | 0.00 | 0.00 | 33 | 1014.0 |
| 20260902225504 | 99 | 147 | 4.0 | 13.0 | 0.00 | 0.00 | 0.00 | 33 | 1013.9 |
| 20260902225306 | 99 | 145 | 4.0 | 13.0 | 0.00 | 0.00 | 0.00 | 33 | 1013.9 |
| 20260902225204 | 99 | 155 | 4.0 | 14.0 | 0.00 | 0.00 | 0.00 | 34 | 1014.0 |
| 20260902225004 | 99 | 146 | 4.0 | 14.0 | 0.00 | 0.00 | 0.00 | 34 | 1014.0 |
| 20260902224904 | 99 | 148 | 5.0 | 14.0 | 0.00 | 0.00 | 0.00 | 33 | 1013.9 |
| 20260902224804 | 99 | 146 | 5.0 | 14.0 | 0.00 | 0.00 | 0.00 | 33 | 1013.9 |
| 20260902224704 | 99 | 149 | 4.0 | 14.0 | 0.00 | 0.00 | 0.00 | 33 | 1013.9 |
| 20260902224504 | 100 | 153 | 4.0 | 14.0 | 0.00 | 0.00 | 0.00 | 33 | 1013.9 |
| 20260902224304 | 100 | 157 | 4.0 | 14.0 | 0.00 | 0.00 | 0.00 | 33 | 1013.9 |
| 20260902224205 | 100 | 147 | 4.0 | 13.0 | 0.00 | 0.00 | 0.00 | 33 | 1014.0 |
| 20260902224105 | 100 | 145 | 4.0 | 13.0 | 0.00 | 0.00 | 0.00 | 33 | 1013.9 |
| 20260902223904 | 100 | 141 | 3.0 | 10.0 | 0.00 | 0.00 | 0.00 | 32 | 1014.0 |
| 20260902223804 | 100 | 146 | 3.0 | 10.0 | 0.00 | 0.00 | 0.00 | 32 | 1013.9 |
| 20260902223604 | 100 | 144 | 3.0 | 10.0 | 0.00 | 0.00 | 0.00 | 33 | 1014.0 |
| 20260902223504 | 100 | 141 | 3.0 | 10.0 | 0.00 | 0.00 | 0.00 | 33 | 1014.0 |
| 20260902223304 | 100 | 139 | 3.0 | 10.0 | 0.00 | 0.00 | 0.00 | 32 | 1014.0 |
| 20260902223204 | 100 | 139 | 3.0 | 10.0 | 0.00 | 0.00 | 0.00 | 33 | 1014.0 |
| 20260902223104 | 100 | 137 | 3.0 | 9.0 | 0.00 | 0.00 | 0.00 | 33 | 1014.0 |
| 20260902223004 | 100 | 135 | 3.0 | 9.0 | 0.00 | 0.00 | 0.00 | 33 | 1014.0 |
| 20260902222904 | 100 | 133 | 3.0 | 9.0 | 0.00 | 0.00 | 0.00 | 33 | 1014.0 |
| 20260902222804 | 100 | 133 | 4.0 | 9.0 | 0.00 | 0.00 | 0.00 | 33 | 1014.0 |
| 20260902222704 | 100 | 135 | 4.0 | 9.0 | 0.00 | 0.00 | 0.00 | 33 | 1014.1 |
| 20260902222604 | 100 | 137 | 4.0 | 9.0 | 0.00 | 0.00 | 0.00 | 33 | 1014.0 |
| 20260902222504 | 100 | 145 | 4.0 | 9.0 | 0.00 | 0.00 | 0.00 | 33 | 1014.1 |
| 20260902222404 | 100 | 144 | 4.0 | 9.0 | 0.00 | 0.00 | 0.00 | 33 | 1014.1 |
| 20260902222204 | 100 | 140 | 4.0 | 9.0 | 0.00 | 0.00 | 0.00 | 33 | 1014.2 |
| 20260902222104 | 100 | 141 | 4.0 | 9.0 | 0.00 | 0.00 | 0.00 | 33 | 1014.2 |
| 20260902222004 | 100 | 146 | 4.0 | 9.0 | 0.00 | 0.00 | 0.00 | 33 | 1014.1 |
| 20260902221905 | 100 | 147 | 4.0 | 9.0 | 0.00 | 0.00 | 0.00 | 33 | 1014.1 |
| 20260902221805 | 100 | 143 | 3.0 | 9.0 | 0.00 | 0.00 | 0.00 | 33 | 1014.1 |
| 20260902221705 | 100 | 141 | 3.0 | 9.0 | 0.00 | 0.00 | 0.00 | 32 | 1014.1 |
| 20260902221404 | 100 | 142 | 3.0 | 11.0 | 0.00 | 0.00 | 0.00 | 32 | 1014.2 |
| 20260902221204 | 101 | 151 | 3.0 | 11.0 | 0.00 | 0.00 | 0.00 | 33 | 1014.1 |
| 20260902221104 | 100 | 153 | 4.0 | 11.0 | 0.00 | 0.00 | 0.00 | 33 | 1014.1 |
| 20260902220905 | 100 | 149 | 4.0 | 11.0 | 0.00 | 0.00 | 0.00 | 32 | 1014.2 |
| 20260902220805 | 100 | 151 | 4.0 | 11.0 | 0.00 | 0.00 | 0.00 | 33 | 1014.1 |
| 20260902220705 | 100 | 149 | 4.0 | 11.0 | 0.00 | 0.00 | 0.00 | 33 | 1014.2 |
| 20260902220605 | 100 | 146 | 4.0 | 11.0 | 0.00 | 0.00 | 0.00 | 33 | 1014.1 |
| 20260902220505 | 100 | 147 | 4.0 | 11.0 | 0.00 | 0.00 | 0.00 | 33 | 1014.2 |
| 20260902220405 | 100 | 143 | 4.0 | 9.0 | 0.00 | 0.00 | 0.00 | 32 | 1014.2 |
| 20260902220305 | 100 | 143 | 4.0 | 9.0 | 0.00 | 0.00 | 0.00 | 33 | 1014.2 |
| 20260902220205 | 100 | 148 | 4.0 | 9.0 | 0.00 | 0.00 | 0.00 | 33 | 1014.2 |
| 20260902220105 | 100 | 145 | 4.0 | 9.0 | 0.00 | 0.00 | 0.00 | 32 | 1014.2 |
| 20260902220005 | 100 | 147 | 4.0 | 9.0 | 0.00 | 0.00 | 0.00 | 33 | 1014.2 |
| 20260902215805 | 100 | 142 | 4.0 | 12.0 | 0.00 | 0.00 | 0.00 | 33 | 1014.3 |
| 20260902215705 | 100 | 145 | 4.0 | 12.0 | 0.00 | 0.00 | 0.00 | 33 | 1014.2 |
| 20260902215605 | 100 | 148 | 4.0 | 12.0 | 0.00 | 0.00 | 0.00 | 33 | 1014.3 |
| 20260902215505 | 100 | 147 | 4.0 | 12.0 | 0.00 | 0.00 | 0.00 | 33 | 1014.3 |
| 20260902215405 | 100 | 152 | 4.0 | 12.0 | 0.00 | 0.00 | 0.00 | 33 | 1014.3 |
| 20260902215306 | 100 | 154 | 4.0 | 12.0 | 0.00 | 0.00 | 0.00 | 32 | 1014.4 |
| 20260902215205 | 100 | 152 | 4.0 | 12.0 | 0.00 | 0.00 | 0.00 | 33 | 1014.3 |
| 20260902215105 | 101 | 156 | 3.0 | 12.0 | 0.00 | 0.00 | 0.00 | 32 | 1014.3 |
| 20260902215005 | 101 | 156 | 3.0 | 12.0 | 0.00 | 0.00 | 0.00 | 32 | 1014.3 |
| 20260902214904 | 101 | 160 | 3.0 | 10.0 | 0.00 | 0.00 | 0.00 | 32 | 1014.4 |
| 20260902214805 | 100 | 167 | 4.0 | 10.0 | 0.00 | 0.00 | 0.00 | 33 | 1014.4 |
| 20260902214605 | 100 | 173 | 4.0 | 11.0 | 0.00 | 0.00 | 0.00 | 33 | 1014.4 |
| 20260902214505 | 100 | 173 | 4.0 | 11.0 | 0.00 | 0.00 | 0.00 | 33 | 1014.4 |
| 20260902214405 | 100 | 167 | 4.0 | 11.0 | 0.00 | 0.00 | 0.00 | 32 | 1014.3 |
| 20260902214205 | 100 | 162 | 4.0 | 11.0 | 0.00 | 0.00 | 0.00 | 32 | 1014.4 |
| 20260902214105 | 100 | 160 | 4.0 | 11.0 | 0.00 | 0.00 | 0.00 | 32 | 1014.4 |
| 20260902214005 | 100 | 160 | 4.0 | 11.0 | 0.00 | 0.00 | 0.00 | 32 | 1014.5 |
| 20260902213905 | 100 | 159 | 4.0 | 11.0 | 0.00 | 0.00 | 0.00 | 32 | 1014.4 |
| 20260902213805 | 100 | 153 | 4.0 | 11.0 | 0.00 | 0.00 | 0.00 | 33 | 1014.5 |
| 20260902213705 | 100 | 150 | 4.0 | 9.0 | 0.00 | 0.00 | 0.00 | 32 | 1014.5 |
| 20260902213605 | 100 | 147 | 4.0 | 9.0 | 0.00 | 0.00 | 0.00 | 32 | 1014.5 |
| 20260902213505 | 100 | 146 | 4.0 | 9.0 | 0.00 | 0.00 | 0.00 | 32 | 1014.5 |
| 20260902213405 | 100 | 144 | 4.0 | 8.0 | 0.00 | 0.00 | 0.00 | 32 | 1014.5 |
| 20260902213305 | 100 | 147 | 4.0 | 8.0 | 0.00 | 0.00 | 0.00 | 32 | 1014.5 |
| 20260902213205 | 100 | 143 | 4.0 | 8.0 | 0.00 | 0.00 | 0.00 | 32 | 1014.5 |
| 20260902213005 | 101 | 144 | 4.0 | 9.0 | 0.00 | 0.00 | 0.00 | 32 | 1014.5 |
| 20260902212905 | 101 | 146 | 4.0 | 9.0 | 0.00 | 0.00 | 0.00 | 32 | 1014.5 |
| 20260902212705 | 101 | 142 | 4.0 | 9.0 | 0.00 | 0.00 | 0.00 | 32 | 1014.5 |
| 20260902212504 | 100 | 150 | 4.0 | 14.0 | 0.00 | 0.00 | 0.00 | 33 | 1014.5 |
| 20260902212404 | 100 | 158 | 4.0 | 14.0 | 0.00 | 0.00 | 0.00 | 33 | 1014.6 |
| 20260902212306 | 100 | 157 | 5.0 | 14.0 | 0.00 | 0.00 | 0.00 | 33 | 1014.5 |
| 20260902212204 | 100 | 161 | 5.0 | 14.0 | 0.00 | 0.00 | 0.00 | 33 | 1014.5 |
| 20260902212104 | 100 | 165 | 5.0 | 14.0 | 0.00 | 0.00 | 0.00 | 33 | 1014.6 |
| 20260902211804 | 100 | 163 | 5.0 | 14.0 | 0.00 | 0.00 | 0.00 | 34 | 1014.6 |
| 20260902211704 | 100 | 163 | 5.0 | 14.0 | 0.00 | 0.00 | 0.00 | 34 | 1014.6 |
| 20260902211504 | 100 | 157 | 5.0 | 12.0 | 0.00 | 0.00 | 0.00 | 33 | 1014.7 |
| 20260902211404 | 100 | 151 | 4.0 | 12.0 | 0.00 | 0.00 | 0.00 | 34 | 1014.6 |
| 20260902211304 | 100 | 152 | 4.0 | 11.0 | 0.00 | 0.00 | 0.00 | 34 | 1014.7 |
| 20260902211004 | 100 | 155 | 5.0 | 16.0 | 0.00 | 0.00 | 0.00 | 33 | 1014.7 |
| 20260902210904 | 100 | 156 | 4.0 | 16.0 | 0.00 | 0.00 | 0.00 | 33 | 1014.7 |
| 20260902210804 | 100 | 154 | 5.0 | 16.0 | 0.00 | 0.00 | 0.00 | 32 | 1014.8 |
| 20260902210704 | 100 | 163 | 4.0 | 16.0 | 0.00 | 0.00 | 0.00 | 33 | 1014.8 |
| 20260902210604 | 100 | 161 | 5.0 | 16.0 | 0.00 | 0.00 | 0.00 | 33 | 1014.8 |
| 20260902210504 | 100 | 167 | 5.0 | 16.0 | 0.00 | 0.00 | 0.00 | 34 | 1014.8 |
| 20260902210404 | 100 | 172 | 5.0 | 16.0 | 0.00 | 0.00 | 0.00 | 33 | 1014.8 |
| 20260902210104 | 100 | 175 | 4.0 | 11.0 | 0.00 | 0.00 | 0.00 | 34 | 1014.8 |
| 20260902210005 | 100 | 181 | 5.0 | 13.0 | 0.00 | 0.00 | 0.00 | 34 | 1014.9 |
| 20260902205904 | 100 | 188 | 5.0 | 13.0 | 0.00 | 0.00 | 0.00 | 34 | 1014.9 |
| 20260902205804 | 100 | 193 | 5.0 | 13.0 | 0.00 | 0.00 | 0.00 | 34 | 1014.9 |
| 20260902205704 | 100 | 189 | 5.0 | 13.0 | 0.00 | 0.00 | 0.00 | 34 | 1014.9 |
| 20260902205504 | 100 | 192 | 5.0 | 15.0 | 0.00 | 0.00 | 0.00 | 34 | 1014.9 |
| 20260902205404 | 100 | 191 | 5.0 | 15.0 | 0.00 | 0.00 | 0.00 | 34 | 1014.9 |
| 20260902205005 | 100 | 187 | 5.0 | 15.0 | 0.00 | 0.00 | 0.00 | 35 | 1015.0 |
| 20260902204805 | 100 | 185 | 4.0 | 15.0 | 0.00 | 0.00 | 0.00 | 35 | 1015.0 |
| 20260902204705 | 100 | 188 | 4.0 | 15.0 | 0.00 | 0.00 | 0.00 | 35 | 1015.0 |
| 20260902204605 | 100 | 191 | 5.0 | 15.0 | 0.00 | 0.00 | 0.00 | 34 | 1015.1 |
| 20260902204505 | 100 | 188 | 4.0 | 14.0 | 0.00 | 0.00 | 0.00 | 35 | 1015.1 |
| 20260902204304 | 100 | 188 | 4.0 | 14.0 | 0.00 | 0.00 | 0.00 | 34 | 1015.1 |
| 20260902204005 | 100 | 189 | 3.0 | 14.0 | 0.00 | 0.00 | 0.00 | 35 | 1015.1 |
| 20260902203705 | 101 | 176 | 3.0 | 14.0 | 0.00 | 0.00 | 0.00 | 34 | 1015.0 |
| 20260902203605 | 101 | 171 | 3.0 | 14.0 | 0.00 | 0.00 | 0.00 | 35 | 1015.1 |
| 20260902203405 | 101 | 168 | 3.0 | 12.0 | 0.00 | 0.00 | 0.00 | 34 | 1015.1 |
| 20260902203305 | 101 | 165 | 3.0 | 12.0 | 0.00 | 0.00 | 0.00 | 35 | 1015.2 |
| 20260902203204 | 100 | 169 | 3.0 | 12.0 | 0.00 | 0.00 | 0.00 | 35 | 1015.2 |
| 20260902203104 | 100 | 170 | 4.0 | 12.0 | 0.00 | 0.00 | 0.00 | 35 | 1015.2 |
| 20260902203004 | 100 | 168 | 4.0 | 12.0 | 0.00 | 0.00 | 0.00 | 35 | 1015.3 |
| 20260902202904 | 100 | 167 | 5.0 | 11.0 | 0.00 | 0.00 | 0.00 | 35 | 1015.3 |
| 20260902202804 | 100 | 171 | 5.0 | 12.0 | 0.00 | 0.00 | 0.00 | 36 | 1015.3 |
| 20260902202705 | 100 | 176 | 5.0 | 12.0 | 0.00 | 0.00 | 0.00 | 35 | 1015.3 |
| 20260902202504 | 99 | 185 | 5.0 | 12.0 | 0.00 | 0.00 | 0.00 | 35 | 1015.3 |
| 20260902202404 | 99 | 183 | 5.0 | 12.0 | 0.00 | 0.00 | 0.00 | 35 | 1015.3 |
| 20260902202306 | 99 | 182 | 5.0 | 12.0 | 0.00 | 0.00 | 0.00 | 35 | 1015.4 |
| 20260902202204 | 99 | 179 | 5.0 | 12.0 | 0.00 | 0.00 | 0.00 | 35 | 1015.4 |
| 20260902202104 | 99 | 184 | 5.0 | 13.0 | 0.00 | 0.00 | 0.00 | 35 | 1015.4 |
| 20260902202004 | 100 | 191 | 5.0 | 13.0 | 0.00 | 0.00 | 0.00 | 35 | 1015.4 |
| 20260902201904 | 100 | 191 | 5.0 | 13.0 | 0.00 | 0.00 | 0.00 | 35 | 1015.3 |
| 20260902201804 | 100 | 189 | 5.0 | 13.0 | 0.00 | 0.00 | 0.00 | 34 | 1015.3 |
| 20260902201704 | 100 | 185 | 5.0 | 13.0 | 0.00 | 0.00 | 0.00 | 34 | 1015.4 |
| 20260902201604 | 100 | 182 | 5.0 | 13.0 | 0.00 | 0.00 | 0.00 | 35 | 1015.4 |
| 20260902201504 | 100 | 181 | 5.0 | 13.0 | 0.00 | 0.00 | 0.00 | 35 | 1015.4 |
| 20260902201404 | 100 | 182 | 5.0 | 13.0 | 0.00 | 0.00 | 0.00 | 34 | 1015.4 |
| 20260902201304 | 100 | 179 | 5.0 | 13.0 | 0.00 | 0.00 | 0.00 | 36 | 1015.5 |
| 20260902201204 | 100 | 186 | 5.0 | 13.0 | 0.00 | 0.00 | 0.00 | 36 | 1015.6 |
| 20260902201104 | 100 | 186 | 5.0 | 11.0 | 0.00 | 0.00 | 0.00 | 35 | 1015.4 |
| 20260902201004 | 100 | 186 | 5.0 | 11.0 | 0.00 | 0.00 | 0.00 | 35 | 1015.4 |
| 20260902200904 | 100 | 187 | 5.0 | 11.0 | 0.00 | 0.00 | 0.00 | 35 | 1015.4 |
| 20260902200804 | 100 | 187 | 5.0 | 11.0 | 0.00 | 0.00 | 0.00 | 35 | 1015.5 |
| 20260902200704 | 100 | 186 | 5.0 | 11.0 | 0.00 | 0.00 | 0.00 | 35 | 1015.5 |
| 20260902200604 | 100 | 185 | 5.0 | 11.0 | 0.00 | 0.00 | 0.00 | 35 | 1015.6 |
| 20260902200504 | 100 | 183 | 5.0 | 11.0 | 0.00 | 0.00 | 0.00 | 36 | 1015.6 |
| 20260902200404 | 100 | 177 | 4.0 | 10.0 | 0.00 | 0.00 | 0.00 | 36 | 1015.6 |
| 20260902200305 | 100 | 179 | 4.0 | 10.0 | 0.00 | 0.00 | 0.00 | 35 | 1015.5 |
| 20260902200104 | 100 | 159 | 4.0 | 10.0 | 0.00 | 0.00 | 0.00 | 35 | 1015.6 |
| 20260902200005 | 100 | 151 | 4.0 | 8.0 | 0.00 | 0.00 | 0.00 | 35 | 1015.6 |
| 20260902195804 | 100 | 153 | 4.0 | 9.0 | 0.00 | 0.00 | 0.00 | 35 | 1015.5 |
| 20260902195704 | 100 | 151 | 4.0 | 9.0 | 0.00 | 0.00 | 0.00 | 35 | 1015.5 |
| 20260902195604 | 100 | 148 | 4.0 | 9.0 | 0.00 | 0.00 | 0.00 | 35 | 1015.6 |
| 20260902195504 | 100 | 147 | 4.0 | 9.0 | 0.00 | 0.00 | 0.00 | 36 | 1015.6 |
| 20260902195404 | 100 | 145 | 4.0 | 9.0 | 0.00 | 0.00 | 0.00 | 35 | 1015.7 |
| 20260902195306 | 100 | 146 | 4.0 | 9.0 | 0.00 | 0.00 | 0.00 | 35 | 1015.7 |
| 20260902195204 | 100 | 151 | 5.0 | 11.0 | 0.00 | 0.00 | 0.00 | 36 | 1015.7 |
| 20260902195004 | 100 | 157 | 5.0 | 15.0 | 0.00 | 0.00 | 0.00 | 35 | 1015.6 |
| 20260902194904 | 100 | 150 | 5.0 | 15.0 | 0.00 | 0.00 | 0.00 | 35 | 1015.7 |
| 20260902194804 | 99 | 152 | 5.0 | 15.0 | 0.00 | 0.00 | 0.00 | 35 | 1015.7 |
| 20260902194505 | 99 | 169 | 5.0 | 15.0 | 0.00 | 0.00 | 0.00 | 34 | 1015.8 |
| 20260902194305 | 99 | 175 | 5.0 | 15.0 | 0.00 | 0.00 | 0.00 | 35 | 1015.8 |
| 20260902194204 | 99 | 178 | 5.0 | 15.0 | 0.00 | 0.00 | 0.00 | 35 | 1015.8 |
| 20260902194104 | 98 | 186 | 5.0 | 13.0 | 0.00 | 0.00 | 0.00 | 35 | 1015.8 |
| 20260902194004 | 98 | 187 | 5.0 | 13.0 | 0.00 | 0.00 | 0.00 | 36 | 1015.8 |
| 20260902193904 | 98 | 188 | 5.0 | 13.0 | 0.00 | 0.00 | 0.00 | 37 | 1015.8 |
| 20260902193804 | 99 | 187 | 5.0 | 13.0 | 0.00 | 0.00 | 0.00 | 36 | 1015.8 |
| 20260902193704 | 99 | 183 | 5.0 | 13.0 | 0.00 | 0.00 | 0.00 | 37 | 1015.8 |
| 20260902193604 | 99 | 177 | 5.0 | 13.0 | 0.00 | 0.00 | 0.00 | 36 | 1015.9 |
| 20260902193505 | 99 | 171 | 5.0 | 13.0 | 0.00 | 0.00 | 0.00 | 36 | 1016.0 |
| 20260902193404 | 99 | 169 | 5.0 | 13.0 | 0.00 | 0.00 | 0.00 | 37 | 1015.9 |
| 20260902193304 | 99 | 168 | 5.0 | 13.0 | 0.00 | 0.00 | 0.00 | 36 | 1015.9 |
| 20260902193205 | 99 | 161 | 4.0 | 12.0 | 0.00 | 0.00 | 0.00 | 35 | 1016.0 |
| 20260902193105 | 99 | 153 | 4.0 | 12.0 | 0.00 | 0.00 | 0.00 | 35 | 1015.9 |
| 20260902193005 | 99 | 154 | 4.0 | 12.0 | 0.00 | 0.00 | 0.00 | 35 | 1015.9 |
| 20260902192905 | 99 | 157 | 4.0 | 12.0 | 0.00 | 0.00 | 0.00 | 36 | 1016.0 |
| 20260902192805 | 99 | 163 | 5.0 | 15.0 | 0.00 | 0.00 | 0.00 | 36 | 1016.0 |
| 20260902192705 | 99 | 165 | 5.0 | 15.0 | 0.00 | 0.00 | 0.00 | 35 | 1015.9 |
| 20260902192605 | 99 | 166 | 5.0 | 15.0 | 0.00 | 0.00 | 0.00 | 35 | 1015.9 |
| 20260902192505 | 99 | 168 | 5.0 | 15.0 | 0.00 | 0.00 | 0.00 | 35 | 1016.0 |
| 20260902192404 | 99 | 164 | 5.0 | 15.0 | 0.00 | 0.00 | 0.00 | 35 | 1016.1 |
| 20260902192307 | 99 | 163 | 6.0 | 15.0 | 0.00 | 0.00 | 0.00 | 37 | 1016.1 |
| 20260902192104 | 99 | 174 | 6.0 | 16.0 | 0.00 | 0.00 | 0.00 | 36 | 1016.1 |
| 20260902192005 | 99 | 171 | 6.0 | 16.0 | 0.00 | 0.00 | 0.00 | 36 | 1016.1 |
| 20260902191905 | 99 | 169 | 6.0 | 16.0 | 0.00 | 0.00 | 0.00 | 36 | 1016.1 |
| 20260902191804 | 99 | 169 | 5.0 | 16.0 | 0.00 | 0.00 | 0.00 | 36 | 1016.1 |
| 20260902191705 | 99 | 170 | 5.0 | 16.0 | 0.00 | 0.00 | 0.00 | 36 | 1016.1 |
| 20260902191604 | 99 | 173 | 5.0 | 16.0 | 0.00 | 0.00 | 0.00 | 37 | 1016.1 |
| 20260902191505 | 99 | 173 | 5.0 | 16.0 | 0.00 | 0.00 | 0.00 | 37 | 1016.1 |
| 20260902191404 | 99 | 177 | 5.0 | 16.0 | 0.00 | 0.00 | 0.00 | 36 | 1016.1 |
| 20260902191304 | 99 | 177 | 5.0 | 16.0 | 0.00 | 0.00 | 0.00 | 36 | 1016.1 |
| 20260902191204 | 99 | 169 | 5.0 | 13.0 | 0.00 | 0.00 | 0.00 | 36 | 1016.2 |
| 20260902191104 | 99 | 165 | 5.0 | 13.0 | 0.00 | 0.00 | 0.00 | 36 | 1016.2 |
| 20260902191004 | 99 | 166 | 5.0 | 13.0 | 0.00 | 0.00 | 0.00 | 36 | 1016.2 |
| 20260902190904 | 99 | 170 | 5.0 | 13.0 | 0.00 | 0.00 | 0.00 | 36 | 1016.2 |
| 20260902190804 | 99 | 169 | 5.0 | 13.0 | 0.00 | 0.00 | 0.00 | 36 | 1016.2 |
| 20260902190704 | 99 | 165 | 5.0 | 13.0 | 0.00 | 0.00 | 0.00 | 37 | 1016.3 |
| 20260902190604 | 99 | 165 | 5.0 | 13.0 | 0.00 | 0.00 | 0.00 | 36 | 1016.2 |
| 20260902190504 | 99 | 162 | 5.0 | 13.0 | 0.00 | 0.00 | 0.00 | 36 | 1016.3 |
| 20260902190404 | 99 | 160 | 5.0 | 13.0 | 0.00 | 0.00 | 0.00 | 36 | 1016.3 |
| 20260902190204 | 100 | 159 | 4.0 | 11.0 | 0.00 | 0.00 | 0.00 | 36 | 1016.2 |
| 20260902190104 | 100 | 160 | 4.0 | 11.0 | 0.00 | 0.00 | 0.00 | 35 | 1016.4 |
| 20260902190005 | 100 | 162 | 4.0 | 11.0 | 0.00 | 0.00 | 0.00 | 35 | 1016.4 |
| 20260902185905 | 100 | 157 | 4.0 | 8.0 | 0.00 | 0.00 | 0.00 | 36 | 1016.4 |
| 20260902185805 | 100 | 156 | 4.0 | 8.0 | 0.00 | 0.00 | 0.00 | 36 | 1016.5 |
| 20260902185705 | 100 | 161 | 4.0 | 9.0 | 0.00 | 0.00 | 0.00 | 36 | 1016.5 |
| 20260902185605 | 100 | 168 | 5.0 | 13.0 | 0.00 | 0.00 | 0.00 | 36 | 1016.5 |
| 20260902185505 | 100 | 175 | 5.0 | 13.0 | 0.00 | 0.00 | 0.00 | 36 | 1016.5 |
| 20260902185307 | 99 | 176 | 5.0 | 13.0 | 0.00 | 0.00 | 0.00 | 37 | 1016.5 |
| 20260902185205 | 99 | 176 | 5.0 | 13.0 | 0.00 | 0.00 | 0.00 | 37 | 1016.6 |
| 20260902185104 | 99 | 172 | 5.0 | 13.0 | 0.00 | 0.00 | 0.00 | 37 | 1016.6 |
| 20260902185004 | 99 | 171 | 5.0 | 13.0 | 0.00 | 0.00 | 0.00 | 37 | 1016.6 |
| 20260902184905 | 99 | 175 | 6.0 | 13.0 | 0.00 | 0.00 | 0.00 | 37 | 1016.6 |
| 20260902184805 | 99 | 178 | 6.0 | 16.0 | 0.00 | 0.00 | 0.00 | 37 | 1016.6 |
| 20260902184705 | 99 | 183 | 6.0 | 16.0 | 0.00 | 0.00 | 0.00 | 37 | 1016.6 |
| 20260902184605 | 99 | 182 | 6.0 | 16.0 | 0.00 | 0.00 | 0.00 | 37 | 1016.7 |
| 20260902184504 | 99 | 177 | 6.0 | 16.0 | 0.00 | 0.00 | 0.00 | 37 | 1016.7 |
| 20260902184304 | 98 | 177 | 6.0 | 16.0 | 0.00 | 0.00 | 0.00 | 37 | 1016.7 |
| 20260902184204 | 98 | 176 | 6.0 | 16.0 | 0.00 | 0.00 | 0.00 | 37 | 1016.8 |
| 20260902184104 | 98 | 179 | 5.0 | 16.0 | 0.00 | 0.00 | 0.00 | 37 | 1016.8 |
| 20260902184004 | 99 | 183 | 5.0 | 16.0 | 0.00 | 0.00 | 0.00 | 36 | 1016.8 |
| 20260902183905 | 99 | 182 | 5.0 | 16.0 | 0.00 | 0.00 | 0.00 | 36 | 1016.8 |
| 20260902183805 | 99 | 184 | 5.0 | 13.0 | 0.00 | 0.00 | 0.00 | 36 | 1016.9 |
| 20260902183705 | 99 | 181 | 5.0 | 14.0 | 0.00 | 0.00 | 0.00 | 37 | 1016.9 |
| 20260902183604 | 99 | 178 | 5.0 | 14.0 | 0.00 | 0.00 | 0.00 | 37 | 1016.9 |
| 20260902183504 | 99 | 184 | 5.0 | 14.0 | 0.00 | 0.00 | 0.00 | 37 | 1016.9 |
| 20260902183205 | 98 | 191 | 4.0 | 14.0 | 0.00 | 0.00 | 0.00 | 39 | 1016.9 |
| 20260902183105 | 98 | 195 | 5.0 | 14.0 | 0.00 | 0.00 | 0.00 | 38 | 1016.9 |
| 20260902183004 | 98 | 191 | 5.0 | 14.0 | 0.00 | 0.00 | 0.00 | 38 | 1017.0 |
| 20260902182904 | 98 | 186 | 5.0 | 14.0 | 0.00 | 0.00 | 0.00 | 38 | 1017.0 |
| 20260902182805 | 98 | 182 | 5.0 | 14.0 | 0.00 | 0.00 | 0.00 | 39 | 1017.0 |
| 20260902182604 | 98 | 183 | 5.0 | 13.0 | 0.00 | 0.00 | 0.00 | 38 | 1017.0 |
| 20260902182504 | 98 | 183 | 5.0 | 13.0 | 0.00 | 0.00 | 0.00 | 38 | 1017.0 |
| 20260902182404 | 98 | 184 | 5.0 | 13.0 | 0.00 | 0.00 | 0.00 | 38 | 1017.0 |
| 20260902182306 | 98 | 185 | 6.0 | 14.0 | 0.00 | 0.00 | 0.00 | 38 | 1017.0 |
| 20260902182205 | 98 | 184 | 6.0 | 14.0 | 0.00 | 0.00 | 0.00 | 37 | 1017.1 |
| 20260902182104 | 98 | 178 | 6.0 | 14.0 | 0.00 | 0.00 | 0.00 | 37 | 1017.0 |
| 20260902181904 | 98 | 178 | 6.0 | 14.0 | 0.00 | 0.00 | 0.00 | 39 | 1017.2 |
| 20260902181704 | 97 | 178 | 6.0 | 14.0 | 0.00 | 0.00 | 0.00 | 40 | 1017.2 |
| 20260902181604 | 97 | 181 | 6.0 | 14.0 | 0.00 | 0.00 | 0.00 | 39 | 1017.2 |
| 20260902181504 | 97 | 175 | 6.0 | 14.0 | 0.00 | 0.00 | 0.00 | 40 | 1017.2 |
| 20260902181404 | 97 | 168 | 6.0 | 14.0 | 0.00 | 0.00 | 0.00 | 39 | 1017.2 |
| 20260902181305 | 97 | 164 | 6.0 | 12.0 | 0.00 | 0.00 | 0.00 | 39 | 1017.2 |
| 20260902181204 | 97 | 159 | 5.0 | 12.0 | 0.00 | 0.00 | 0.00 | 39 | 1017.2 |
| 20260902181105 | 97 | 163 | 6.0 | 12.0 | 0.00 | 0.00 | 0.00 | 40 | 1017.3 |
| 20260902181005 | 97 | 170 | 6.0 | 15.0 | 0.00 | 0.00 | 0.00 | 40 | 1017.2 |
| 20260902180804 | 97 | 171 | 6.0 | 15.0 | 0.00 | 0.00 | 0.00 | 40 | 1017.3 |
| 20260902180705 | 97 | 171 | 6.0 | 15.0 | 0.00 | 0.00 | 0.00 | 39 | 1017.3 |